| time (UTC) | temp F | wind direction | speed knots | gust knots | rain 1hr in | rain 24hr in | rain mn in | humidity % | barometer mb |
| 20260506105153 | 56 | 248 | 3.5 | 7.8 | 0.00 | 0.01 | 0.00 | 1 | 1017.7 |
| 20260506105148 | 56 | 275 | 3.5 | 7.8 | 0.00 | 0.01 | 0.00 | 1 | 1017.7 |
| 20260506104944 | 56 | 297 | 4.3 | 7.8 | 0.00 | 0.01 | 0.00 | 1 | 1017.7 |
| 20260506104844 | 56 | 286 | 4.3 | 7.8 | 0.00 | 0.01 | 0.00 | 1 | 1017.7 |
| 20260506104744 | 56 | 296 | 4.3 | 7.8 | 0.00 | 0.01 | 0.00 | 1 | 1017.7 |
| 20260506104644 | 56 | 286 | 4.3 | 7.8 | 0.00 | 0.01 | 0.00 | 1 | 1017.7 |
| 20260506104538 | 56 | 279 | 4.3 | 7.8 | 0.00 | 0.01 | 0.00 | 1 | 1017.7 |
| 20260506104438 | 56 | 326 | 4.3 | 7.8 | 0.00 | 0.01 | 0.00 | 1 | 1017.7 |
| 20260506104346 | 56 | 284 | 3.5 | 7.0 | 0.00 | 0.01 | 0.00 | 1 | 1017.7 |
| 20260506104342 | 56 | 288 | 4.3 | 7.0 | 0.00 | 0.01 | 0.00 | 1 | 1017.7 |
| 20260506104138 | 56 | 286 | 4.3 | 7.0 | 0.00 | 0.01 | 0.00 | 1 | 1017.7 |
| 20260506104037 | 56 | 288 | 4.3 | 7.0 | 0.00 | 0.01 | 0.00 | 1 | 1017.7 |
| 20260506103938 | 56 | 278 | 4.3 | 7.0 | 0.00 | 0.01 | 0.00 | 1 | 1017.6 |
| 20260506103838 | 56 | 277 | 4.3 | 7.0 | 0.00 | 0.01 | 0.00 | 1 | 1017.6 |
| 20260506103738 | 56 | 285 | 4.3 | 7.0 | 0.00 | 0.01 | 0.00 | 1 | 1017.7 |
| 20260506103638 | 56 | 277 | 4.3 | 9.6 | 0.00 | 0.01 | 0.00 | 1 | 1017.7 |
| 20260506103537 | 56 | 272 | 4.3 | 9.6 | 0.00 | 0.01 | 0.00 | 1 | 1017.7 |
| 20260506103437 | 56 | 277 | 4.3 | 9.6 | 0.00 | 0.01 | 0.00 | 1 | 1017.7 |
| 20260506103334 | 56 | 270 | 4.3 | 9.6 | 0.00 | 0.01 | 0.00 | 1 | 1017.7 |
| 20260506103234 | 56 | 267 | 4.3 | 9.6 | 0.00 | 0.01 | 0.00 | 1 | 1017.7 |
| 20260506103134 | 56 | 286 | 4.3 | 9.6 | 0.00 | 0.01 | 0.00 | 1 | 1017.7 |
| 20260506103034 | 56 | 296 | 4.3 | 9.6 | 0.00 | 0.01 | 0.00 | 1 | 1017.7 |
| 20260506102933 | 56 | 273 | 4.3 | 9.6 | 0.00 | 0.01 | 0.00 | 1 | 1017.7 |
| 20260506102833 | 56 | 295 | 4.3 | 9.6 | 0.00 | 0.01 | 0.00 | 1 | 1017.6 |
| 20260506102734 | 56 | 289 | 3.5 | 9.6 | 0.00 | 0.01 | 0.00 | 1 | 1017.7 |
| 20260506102633 | 55 | 288 | 3.5 | 7.8 | 0.00 | 0.01 | 0.00 | 1 | 1017.7 |
| 20260506102534 | 56 | 279 | 3.5 | 7.8 | 0.00 | 0.01 | 0.00 | 1 | 1017.7 |
| 20260506102434 | 55 | 280 | 3.5 | 7.8 | 0.00 | 0.01 | 0.00 | 1 | 1017.7 |
| 20260506102334 | 55 | 281 | 3.5 | 7.8 | 0.00 | 0.01 | 0.00 | 1 | 1017.7 |
| 20260506102234 | 55 | 279 | 4.3 | 7.8 | 0.00 | 0.01 | 0.00 | 1 | 1017.7 |
| 20260506102133 | 55 | 284 | 4.3 | 7.8 | 0.00 | 0.01 | 0.00 | 1 | 1017.7 |
| 20260506102034 | 55 | 281 | 3.5 | 7.8 | 0.00 | 0.01 | 0.00 | 1 | 1017.6 |
| 20260506101934 | 55 | 267 | 3.5 | 6.1 | 0.00 | 0.02 | 0.00 | 1 | 1017.6 |
| 20260506101834 | 55 | 269 | 3.5 | 6.1 | 0.00 | 0.02 | 0.00 | 1 | 1017.6 |
| 20260506101734 | 55 | 281 | 4.3 | 6.1 | 0.00 | 0.02 | 0.00 | 1 | 1017.6 |
| 20260506101634 | 55 | 279 | 3.5 | 7.0 | 0.00 | 0.02 | 0.00 | 1 | 1017.6 |
| 20260506101534 | 55 | 286 | 3.5 | 7.0 | 0.00 | 0.02 | 0.00 | 1 | 1017.6 |
| 20260506101430 | 55 | 255 | 3.5 | 7.0 | 0.00 | 0.02 | 0.00 | 1 | 1017.6 |
| 20260506101330 | 55 | 279 | 3.5 | 7.0 | 0.00 | 0.02 | 0.00 | 1 | 1017.6 |
| 20260506101230 | 55 | 267 | 3.5 | 7.0 | 0.00 | 0.02 | 0.00 | 1 | 1017.6 |
| 20260506101129 | 55 | 281 | 3.5 | 7.0 | 0.00 | 0.02 | 0.00 | 1 | 1017.6 |
| 20260506101029 | 55 | 269 | 3.5 | 7.0 | 0.00 | 0.02 | 0.00 | 1 | 1017.6 |
| 20260506100930 | 55 | 279 | 3.5 | 7.0 | 0.00 | 0.02 | 0.00 | 1 | 1017.6 |
| 20260506100830 | 55 | 276 | 3.5 | 7.0 | 0.00 | 0.02 | 0.00 | 1 | 1017.6 |
| 20260506100730 | 55 | 276 | 3.5 | 7.0 | 0.00 | 0.02 | 0.00 | 1 | 1017.6 |
| 20260506100630 | 55 | 272 | 3.5 | 7.0 | 0.00 | 0.02 | 0.00 | 1 | 1017.5 |
| 20260506100550 | 55 | 304 | 3.5 | 6.1 | 0.00 | 0.02 | 0.00 | 1 | 1017.5 |
| 20260506100430 | 55 | 269 | 3.5 | 6.1 | 0.00 | 0.02 | 0.00 | 1 | 1017.6 |
| 20260506100330 | 55 | 259 | 3.5 | 6.1 | 0.00 | 0.02 | 0.00 | 1 | 1017.5 |
| 20260506100230 | 55 | 286 | 3.5 | 6.1 | 0.00 | 0.02 | 0.00 | 1 | 1017.6 |
| 20260506100130 | 55 | 276 | 3.5 | 6.1 | 0.00 | 0.02 | 0.00 | 1 | 1017.6 |
| 20260506100030 | 55 | 283 | 3.5 | 7.0 | 0.00 | 0.02 | 0.00 | 1 | 1017.5 |
| 20260506095929 | 55 | 278 | 3.5 | 7.0 | 0.00 | 0.02 | 0.00 | 1 | 1017.6 |
| 20260506095830 | 55 | 286 | 3.5 | 7.0 | 0.00 | 0.02 | 0.00 | 1 | 1017.6 |
| 20260506095730 | 56 | 292 | 3.5 | 7.0 | 0.00 | 0.02 | 0.00 | 1 | 1017.6 |
| 20260506095630 | 55 | 281 | 3.5 | 7.0 | 0.00 | 0.02 | 0.00 | 1 | 1017.6 |
| 20260506095525 | 55 | 277 | 3.5 | 7.0 | 0.00 | 0.02 | 0.00 | 1 | 1017.5 |
| 20260506095426 | 55 | 286 | 3.5 | 7.0 | 0.00 | 0.02 | 0.00 | 1 | 1017.5 |
| 20260506095326 | 55 | 286 | 3.5 | 7.8 | 0.00 | 0.02 | 0.00 | 1 | 1017.6 |
| 20260506095226 | 55 | 269 | 3.5 | 7.8 | 0.00 | 0.02 | 0.00 | 1 | 1017.6 |
| 20260506095126 | 55 | 286 | 3.5 | 7.8 | 0.00 | 0.02 | 0.00 | 1 | 1017.6 |
| 20260506095023 | 55 | 290 | 2.6 | 7.8 | 0.00 | 0.02 | 0.00 | 1 | 1017.6 |
| 20260506094924 | 55 | 274 | 2.6 | 7.8 | 0.00 | 0.02 | 0.00 | 1 | 1017.6 |
| 20260506094824 | 56 | 294 | 2.6 | 7.8 | 0.00 | 0.02 | 0.00 | 1 | 1017.6 |
| 20260506094732 | 56 | 308 | 2.6 | 7.8 | 0.00 | 0.02 | 0.00 | 1 | 1017.6 |
| 20260506094728 | 56 | 282 | 2.6 | 7.8 | 0.00 | 0.02 | 0.00 | 1 | 1017.6 |
| 20260506094532 | 56 | 257 | 2.6 | 7.8 | 0.00 | 0.02 | 0.00 | 1 | 1017.7 |
| 20260506094528 | 56 | 288 | 2.6 | 7.8 | 0.00 | 0.02 | 0.00 | 1 | 1017.6 |
| 20260506094324 | 56 | 279 | 2.6 | 7.8 | 0.00 | 0.02 | 0.00 | 1 | 1017.7 |
| 20260506094223 | 56 | 279 | 2.6 | 7.8 | 0.00 | 0.02 | 0.00 | 1 | 1017.7 |
| 20260506094122 | 56 | 286 | 3.5 | 7.8 | 0.00 | 0.02 | 0.00 | 1 | 1017.7 |
| 20260506094022 | 56 | 259 | 3.5 | 7.8 | 0.00 | 0.02 | 0.00 | 1 | 1017.7 |
| 20260506093922 | 56 | 271 | 3.5 | 7.8 | 0.00 | 0.02 | 0.00 | 1 | 1017.7 |
| 20260506093820 | 56 | 290 | 3.5 | 7.8 | 0.00 | 0.02 | 0.00 | 1 | 1017.7 |
| 20260506093720 | 56 | 294 | 3.5 | 7.8 | 0.00 | 0.02 | 0.00 | 1 | 1017.7 |
| 20260506093619 | 56 | 281 | 3.5 | 7.8 | 0.00 | 0.02 | 0.00 | 1 | 1017.7 |
| 20260506093519 | 56 | 307 | 3.5 | 7.8 | 0.00 | 0.02 | 0.00 | 1 | 1017.6 |
| 20260506093420 | 56 | 276 | 4.3 | 7.8 | 0.00 | 0.02 | 0.00 | 1 | 1017.7 |
| 20260506093320 | 56 | 277 | 4.3 | 8.7 | 0.00 | 0.02 | 0.00 | 1 | 1017.6 |
| 20260506093217 | 56 | 277 | 4.3 | 8.7 | 0.00 | 0.02 | 0.00 | 1 | 1017.6 |
| 20260506093117 | 56 | 275 | 4.3 | 8.7 | 0.00 | 0.02 | 0.00 | 1 | 1017.6 |
| 20260506093018 | 56 | 289 | 4.3 | 8.7 | 0.00 | 0.02 | 0.00 | 1 | 1017.6 |
| 20260506092918 | 56 | 281 | 4.3 | 8.7 | 0.00 | 0.02 | 0.00 | 1 | 1017.6 |
| 20260506092818 | 56 | 275 | 4.3 | 8.7 | 0.00 | 0.02 | 0.00 | 1 | 1017.6 |
| 20260506092717 | 56 | 301 | 4.3 | 8.7 | 0.00 | 0.02 | 0.00 | 1 | 1017.6 |
| 20260506092617 | 56 | 266 | 4.3 | 8.7 | 0.00 | 0.02 | 0.00 | 1 | 1017.5 |
| 20260506092517 | 56 | 270 | 4.3 | 8.7 | 0.00 | 0.02 | 0.00 | 1 | 1017.5 |
| 20260506092417 | 56 | 281 | 4.3 | 8.7 | 0.00 | 0.02 | 0.00 | 1 | 1017.5 |
| 20260506092318 | 56 | 286 | 4.3 | 7.8 | 0.00 | 0.02 | 0.00 | 1 | 1017.5 |
| 20260506092218 | 56 | 273 | 4.3 | 7.8 | 0.00 | 0.02 | 0.00 | 1 | 1017.5 |
| 20260506092116 | 56 | 286 | 4.3 | 7.8 | 0.00 | 0.02 | 0.00 | 1 | 1017.5 |
| 20260506092015 | 56 | 288 | 4.3 | 7.8 | 0.00 | 0.02 | 0.00 | 1 | 1017.5 |
| 20260506091914 | 56 | 284 | 4.3 | 7.8 | 0.00 | 0.02 | 0.00 | 1 | 1017.5 |
| 20260506091814 | 56 | 279 | 4.3 | 7.8 | 0.00 | 0.02 | 0.00 | 1 | 1017.5 |
| 20260506091714 | 56 | 294 | 4.3 | 7.8 | 0.00 | 0.02 | 0.00 | 1 | 1017.5 |
| 20260506091614 | 56 | 281 | 4.3 | 7.8 | 0.00 | 0.02 | 0.00 | 1 | 1017.5 |
| 20260506091514 | 56 | 252 | 4.3 | 7.8 | 0.00 | 0.02 | 0.00 | 1 | 1017.5 |
| 20260506091414 | 56 | 296 | 4.3 | 7.8 | 0.00 | 0.02 | 0.00 | 1 | 1017.5 |
| 20260506091322 | 56 | 292 | 4.3 | 7.8 | 0.00 | 0.02 | 0.00 | 1 | 1017.5 |
| 20260506091318 | 56 | 281 | 4.3 | 7.8 | 0.00 | 0.02 | 0.00 | 1 | 1017.5 |
| 20260506091113 | 56 | 259 | 3.5 | 7.8 | 0.00 | 0.02 | 0.00 | 1 | 1017.5 |
| 20260506091013 | 56 | 273 | 3.5 | 7.8 | 0.00 | 0.02 | 0.00 | 1 | 1017.5 |
| 20260506090910 | 56 | 277 | 3.5 | 7.8 | 0.00 | 0.02 | 0.00 | 1 | 1017.5 |
| 20260506090810 | 56 | 294 | 3.5 | 7.8 | 0.00 | 0.02 | 0.00 | 1 | 1017.5 |
| 20260506090710 | 56 | 279 | 3.5 | 7.0 | 0.00 | 0.02 | 0.00 | 1 | 1017.5 |
| 20260506090608 | 56 | 294 | 3.5 | 7.8 | 0.00 | 0.02 | 0.00 | 1 | 1017.5 |
| 20260506090507 | 56 | 265 | 3.5 | 7.8 | 0.00 | 0.02 | 0.00 | 1 | 1017.5 |
| 20260506090404 | 56 | 277 | 4.3 | 7.8 | 0.00 | 0.02 | 0.00 | 1 | 1017.5 |
| 20260506090301 | 56 | 280 | 4.3 | 7.8 | 0.00 | 0.02 | 0.00 | 1 | 1017.5 |
| 20260506090159 | 56 | 274 | 4.3 | 7.8 | 0.00 | 0.02 | 0.00 | 1 | 1017.5 |
| 20260506090100 | 56 | 265 | 4.3 | 7.8 | 0.00 | 0.02 | 0.00 | 1 | 1017.5 |
| 20260506085958 | 56 | 278 | 4.3 | 7.8 | 0.00 | 0.02 | 0.00 | 1 | 1017.5 |
| 20260506085857 | 56 | 306 | 4.3 | 9.6 | 0.00 | 0.02 | 0.00 | 1 | 1017.5 |
| 20260506085756 | 56 | 277 | 5.2 | 9.6 | 0.00 | 0.02 | 0.00 | 1 | 1017.6 |
| 20260506085655 | 56 | 288 | 5.2 | 9.6 | 0.00 | 0.02 | 0.00 | 1 | 1017.5 |
| 20260506085554 | 56 | 267 | 5.2 | 9.6 | 0.00 | 0.02 | 0.00 | 1 | 1017.5 |
| 20260506085450 | 56 | 286 | 5.2 | 9.6 | 0.00 | 0.02 | 0.00 | 1 | 1017.5 |
| 20260506085348 | 56 | 283 | 4.3 | 9.6 | 0.00 | 0.02 | 0.00 | 1 | 1017.5 |
| 20260506085246 | 56 | 286 | 4.3 | 9.6 | 0.00 | 0.02 | 0.00 | 1 | 1017.5 |
| 20260506085145 | 56 | 279 | 4.3 | 9.6 | 0.00 | 0.02 | 0.00 | 1 | 1017.5 |
| 20260506085045 | 56 | 281 | 4.3 | 9.6 | 0.00 | 0.02 | 0.00 | 1 | 1017.5 |
| 20260506084945 | 56 | 284 | 4.3 | 9.6 | 0.00 | 0.02 | 0.00 | 1 | 1017.5 |
| 20260506084840 | 56 | 286 | 4.3 | 8.7 | 0.00 | 0.02 | 0.00 | 1 | 1017.4 |
| 20260506084739 | 56 | 291 | 4.3 | 8.7 | 0.00 | 0.02 | 0.00 | 1 | 1017.5 |
| 20260506084639 | 56 | 295 | 4.3 | 8.7 | 0.00 | 0.02 | 0.00 | 1 | 1017.5 |
| 20260506084558 | 56 | 271 | 4.3 | 8.7 | 0.00 | 0.02 | 0.00 | 1 | 1017.6 |
| 20260506084554 | 56 | 300 | 5.2 | 8.7 | 0.00 | 0.02 | 0.00 | 1 | 1017.5 |
| 20260506084550 | 56 | 286 | 5.2 | 8.7 | 0.00 | 0.02 | 0.00 | 1 | 1017.6 |
| 20260506084546 | 56 | 272 | 4.3 | 8.7 | 0.00 | 0.02 | 0.00 | 1 | 1017.6 |
| 20260506084133 | 56 | 281 | 5.2 | 8.7 | 0.00 | 0.02 | 0.00 | 1 | 1017.5 |
| 20260506084034 | 56 | 261 | 4.3 | 8.7 | 0.00 | 0.02 | 0.00 | 1 | 1017.6 |
| 20260506083931 | 56 | 274 | 4.3 | 8.7 | 0.00 | 0.02 | 0.00 | 1 | 1017.6 |
| 20260506083826 | 56 | 281 | 5.2 | 8.7 | 0.00 | 0.02 | 0.00 | 1 | 1017.5 |
| 20260506083726 | 56 | 310 | 5.2 | 8.7 | 0.00 | 0.02 | 0.00 | 1 | 1017.5 |
| 20260506083626 | 56 | 271 | 5.2 | 8.7 | 0.00 | 0.02 | 0.00 | 1 | 1017.5 |
| 20260506083526 | 56 | 279 | 5.2 | 8.7 | 0.00 | 0.02 | 0.00 | 1 | 1017.5 |
| 20260506083425 | 56 | 283 | 5.2 | 8.7 | 0.00 | 0.02 | 0.00 | 1 | 1017.5 |
| 20260506083322 | 56 | 284 | 4.3 | 8.7 | 0.00 | 0.02 | 0.00 | 1 | 1017.5 |
| 20260506083219 | 56 | 275 | 5.2 | 7.8 | 0.00 | 0.02 | 0.00 | 1 | 1017.5 |
| 20260506083119 | 56 | 282 | 4.3 | 7.8 | 0.00 | 0.02 | 0.00 | 1 | 1017.6 |
| 20260506083019 | 56 | 263 | 5.2 | 7.8 | 0.00 | 0.03 | 0.00 | 1 | 1017.6 |
| 20260506082917 | 56 | 282 | 5.2 | 7.8 | 0.00 | 0.03 | 0.00 | 1 | 1017.6 |
| 20260506082810 | 56 | 281 | 4.3 | 7.8 | 0.00 | 0.03 | 0.00 | 1 | 1017.6 |
| 20260506082710 | 56 | 286 | 4.3 | 7.8 | 0.00 | 0.03 | 0.00 | 1 | 1017.6 |
| 20260506082610 | 56 | 277 | 4.3 | 7.8 | 0.00 | 0.03 | 0.00 | 1 | 1017.6 |
| 20260506082509 | 56 | 275 | 4.3 | 7.8 | 0.00 | 0.03 | 0.00 | 1 | 1017.7 |
| 20260506082411 | 56 | 279 | 3.5 | 7.8 | 0.00 | 0.03 | 0.00 | 1 | 1017.7 |
| 20260506082408 | 56 | 277 | 3.5 | 7.8 | 0.00 | 0.03 | 0.00 | 1 | 1017.7 |
| 20260506082203 | 56 | 275 | 3.5 | 7.8 | 0.00 | 0.03 | 0.00 | 1 | 1017.7 |
| 20260506082103 | 56 | 300 | 3.5 | 7.8 | 0.00 | 0.03 | 0.00 | 1 | 1017.7 |
| 20260506082004 | 56 | 274 | 2.6 | 7.8 | 0.00 | 0.04 | 0.00 | 1 | 1017.7 |
| 20260506081902 | 56 | 278 | 2.6 | 6.1 | 0.00 | 0.04 | 0.00 | 1 | 1017.7 |
| 20260506081756 | 56 | 263 | 2.6 | 6.1 | 0.00 | 0.04 | 0.00 | 1 | 1017.7 |
| 20260506081656 | 56 | 272 | 2.6 | 6.1 | 0.00 | 0.04 | 0.00 | 1 | 1017.7 |
| 20260506081555 | 56 | 239 | 2.6 | 6.1 | 0.00 | 0.04 | 0.00 | 1 | 1017.8 |
| 20260506081455 | 56 | 266 | 2.6 | 6.1 | 0.00 | 0.04 | 0.00 | 1 | 1017.7 |
| 20260506081355 | 56 | 281 | 2.6 | 6.1 | 0.00 | 0.04 | 0.00 | 1 | 1017.7 |
| 20260506081258 | 56 | 281 | 2.6 | 6.1 | 0.00 | 0.04 | 0.00 | 1 | 1017.7 |
| 20260506081254 | 56 | 279 | 2.6 | 6.1 | 0.00 | 0.04 | 0.00 | 1 | 1017.7 |
| 20260506081050 | 56 | 280 | 3.5 | 6.1 | 0.00 | 0.04 | 0.00 | 1 | 1017.7 |
| 20260506080950 | 56 | 294 | 3.5 | 6.1 | 0.00 | 0.04 | 0.00 | 1 | 1017.7 |
| 20260506080849 | 56 | 269 | 3.5 | 6.1 | 0.00 | 0.04 | 0.00 | 1 | 1017.7 |
| 20260506080744 | 56 | 292 | 3.5 | 6.1 | 0.00 | 0.04 | 0.00 | 1 | 1017.7 |
| 20260506080644 | 56 | 271 | 3.5 | 6.1 | 0.00 | 0.04 | 0.00 | 1 | 1017.7 |
| 20260506080543 | 56 | 277 | 3.5 | 7.0 | 0.00 | 0.05 | 0.00 | 1 | 1017.7 |
| 20260506080443 | 56 | 281 | 3.5 | 7.0 | 0.00 | 0.05 | 0.00 | 1 | 1017.7 |
| 20260506080343 | 56 | 280 | 3.5 | 7.0 | 0.00 | 0.05 | 0.00 | 1 | 1017.6 |
| 20260506080237 | 56 | 280 | 3.5 | 7.0 | 0.00 | 0.05 | 0.00 | 1 | 1017.6 |
| 20260506080137 | 56 | 276 | 3.5 | 7.0 | 0.00 | 0.05 | 0.00 | 1 | 1017.6 |
| 20260506073510 | 56 | 267 | 3.5 | 7.0 | 0.00 | 0.06 | 0.00 | 1 | 1017.4 |
| 20260506073410 | 56 | 294 | 3.5 | 7.0 | 0.00 | 0.06 | 0.00 | 1 | 1017.4 |
| 20260506073306 | 56 | 267 | 3.5 | 7.0 | 0.00 | 0.06 | 0.00 | 1 | 1017.4 |
| 20260506073204 | 56 | 290 | 3.5 | 7.0 | 0.00 | 0.06 | 0.00 | 1 | 1017.4 |
| 20260506073104 | 56 | 294 | 3.5 | 7.0 | 0.00 | 0.06 | 0.00 | 1 | 1017.4 |
| 20260506073004 | 56 | 281 | 3.5 | 7.0 | 0.00 | 0.07 | 0.00 | 1 | 1017.4 |
| 20260506072903 | 56 | 281 | 3.5 | 7.0 | 0.00 | 0.07 | 0.00 | 1 | 1017.3 |
| 20260506072801 | 56 | 279 | 3.5 | 7.0 | 0.00 | 0.07 | 0.00 | 1 | 1017.4 |
| 20260506072655 | 56 | 281 | 3.5 | 6.1 | 0.00 | 0.07 | 0.00 | 1 | 1017.4 |
| 20260506072555 | 56 | 275 | 2.6 | 6.1 | 0.00 | 0.07 | 0.00 | 1 | 1017.4 |
| 20260506072455 | 56 | 281 | 2.6 | 6.1 | 0.00 | 0.07 | 0.00 | 1 | 1017.3 |
| 20260506072355 | 56 | 280 | 2.6 | 6.1 | 0.00 | 0.07 | 0.00 | 1 | 1017.3 |
| 20260506072255 | 56 | 273 | 2.6 | 6.1 | 0.00 | 0.07 | 0.00 | 1 | 1017.3 |
| 20260506072151 | 56 | 281 | 2.6 | 7.0 | 0.00 | 0.07 | 0.00 | 1 | 1017.3 |
| 20260506072049 | 56 | 281 | 3.5 | 7.0 | 0.00 | 0.07 | 0.00 | 1 | 1017.3 |
| 20260506072002 | 56 | 254 | 3.5 | 7.0 | 0.00 | 0.07 | 0.00 | 1 | 1017.3 |
| 20260506071853 | 56 | 275 | 3.5 | 7.0 | 0.00 | 0.07 | 0.00 | 1 | 1017.3 |
| 20260506071643 | 56 | 287 | 3.5 | 7.0 | 0.00 | 0.07 | 0.00 | 1 | 1017.3 |
| 20260506071543 | 56 | 290 | 4.3 | 7.8 | 0.00 | 0.07 | 0.00 | 1 | 1017.3 |
| 20260506071443 | 56 | 300 | 4.3 | 7.8 | 0.00 | 0.07 | 0.00 | 1 | 1017.3 |
| 20260506071343 | 56 | 284 | 4.3 | 7.8 | 0.00 | 0.07 | 0.00 | 1 | 1017.3 |
| 20260506071243 | 56 | 296 | 4.3 | 7.8 | 0.00 | 0.07 | 0.00 | 1 | 1017.3 |
| 20260506071137 | 56 | 277 | 4.3 | 7.8 | 0.00 | 0.07 | 0.00 | 1 | 1017.3 |
| 20260506071037 | 56 | 288 | 3.5 | 7.8 | 0.00 | 0.07 | 0.00 | 1 | 1017.3 |
| 20260506070937 | 56 | 265 | 3.5 | 7.8 | 0.00 | 0.07 | 0.00 | 1 | 1017.3 |
| 20260506070838 | 56 | 284 | 3.5 | 7.8 | 0.00 | 0.07 | 0.00 | 1 | 1017.3 |
| 20260506070736 | 56 | 265 | 3.5 | 7.8 | 0.00 | 0.07 | 0.00 | 1 | 1017.3 |
| 20260506070631 | 56 | 294 | 4.3 | 7.8 | 0.00 | 0.07 | 0.00 | 1 | 1017.3 |
| 20260506070532 | 56 | 305 | 4.3 | 7.8 | 0.00 | 0.07 | 0.00 | 1 | 1017.3 |
| 20260506070432 | 56 | 310 | 4.3 | 8.7 | 0.00 | 0.07 | 0.00 | 1 | 1017.3 |
| 20260506070331 | 56 | 289 | 4.3 | 8.7 | 0.00 | 0.07 | 0.00 | 1 | 1017.2 |
| 20260506070230 | 56 | 271 | 5.2 | 8.7 | 0.00 | 0.07 | 0.00 | 1 | 1017.2 |
| 20260506070125 | 56 | 285 | 5.2 | 8.7 | 0.00 | 0.07 | 0.00 | 1 | 1017.2 |
| 20260506062455 | 56 | 282 | 5.2 | 8.7 | 0.00 | 0.08 | 0.07 | 1 | 1017.0 |
| 20260506062348 | 56 | 269 | 5.2 | 8.7 | 0.00 | 0.08 | 0.07 | 1 | 1017.0 |
| 20260506062248 | 56 | 282 | 5.2 | 8.7 | 0.00 | 0.08 | 0.07 | 1 | 1017.0 |
| 20260506062148 | 56 | 284 | 5.2 | 8.7 | 0.00 | 0.08 | 0.07 | 1 | 1017.0 |
| 20260506062048 | 56 | 287 | 4.3 | 8.7 | 0.00 | 0.08 | 0.07 | 1 | 1017.0 |
| 20260506061959 | 56 | 279 | 5.2 | 8.7 | 0.00 | 0.08 | 0.07 | 1 | 1016.9 |
| 20260506061955 | 56 | 263 | 5.2 | 8.7 | 0.00 | 0.08 | 0.07 | 1 | 1016.9 |
| 20260506061951 | 56 | 289 | 5.2 | 8.7 | 0.00 | 0.08 | 0.07 | 1 | 1016.9 |
| 20260506061643 | 56 | 285 | 5.2 | 8.7 | 0.00 | 0.08 | 0.07 | 1 | 1016.9 |
| 20260506061542 | 56 | 290 | 5.2 | 8.7 | 0.00 | 0.08 | 0.07 | 1 | 1016.9 |
| 20260506061442 | 56 | 267 | 5.2 | 9.6 | 0.00 | 0.08 | 0.07 | 1 | 1016.9 |
| 20260506061337 | 56 | 267 | 5.2 | 9.6 | 0.00 | 0.08 | 0.07 | 1 | 1016.9 |
| 20260506061236 | 56 | 279 | 5.2 | 9.6 | 0.00 | 0.08 | 0.07 | 1 | 1016.8 |
| 20260506061136 | 56 | 297 | 5.2 | 9.6 | 0.00 | 0.08 | 0.07 | 1 | 1016.9 |
| 20260506061036 | 56 | 283 | 5.2 | 9.6 | 0.00 | 0.08 | 0.07 | 1 | 1016.9 |
| 20260506060936 | 56 | 274 | 5.2 | 9.6 | 0.00 | 0.08 | 0.07 | 1 | 1016.9 |
| 20260506060833 | 56 | 284 | 5.2 | 9.6 | 0.00 | 0.08 | 0.07 | 1 | 1016.9 |
| 20260506060733 | 56 | 312 | 6.1 | 9.6 | 0.00 | 0.08 | 0.07 | 1 | 1016.9 |
| 20260506060632 | 56 | 295 | 6.1 | 9.6 | 0.00 | 0.08 | 0.07 | 1 | 1016.8 |
| 20260506060532 | 56 | 297 | 6.1 | 9.6 | 0.00 | 0.08 | 0.07 | 1 | 1016.8 |
| 20260506060433 | 56 | 271 | 6.1 | 9.6 | 0.00 | 0.08 | 0.07 | 1 | 1016.9 |
| 20260506060429 | 56 | 279 | 5.2 | 9.6 | 0.00 | 0.08 | 0.07 | 1 | 1016.8 |
| 20260506060225 | 56 | 276 | 6.1 | 9.6 | 0.00 | 0.08 | 0.07 | 1 | 1016.9 |
| 20260506060125 | 56 | 277 | 5.2 | 9.6 | 0.00 | 0.08 | 0.07 | 1 | 1016.9 |
| 20260506051330 | 57 | 252 | 5.2 | 9.6 | 0.00 | 0.10 | 0.07 | 1 | 1016.6 |
| 20260506051225 | 57 | 236 | 5.2 | 8.7 | 0.00 | 0.10 | 0.07 | 1 | 1016.6 |
| 20260506051125 | 57 | 279 | 5.2 | 8.7 | 0.00 | 0.10 | 0.07 | 1 | 1016.6 |
| 20260506051024 | 56 | 289 | 5.2 | 8.7 | 0.00 | 0.10 | 0.07 | 1 | 1016.6 |
| 20260506050924 | 56 | 265 | 6.1 | 10.4 | 0.00 | 0.10 | 0.07 | 1 | 1016.6 |
| 20260506050824 | 56 | 278 | 6.1 | 10.4 | 0.00 | 0.10 | 0.07 | 1 | 1016.6 |
| 20260506050721 | 57 | 273 | 5.2 | 10.4 | 0.00 | 0.10 | 0.07 | 1 | 1016.6 |
| 20260506050621 | 57 | 282 | 5.2 | 10.4 | 0.00 | 0.10 | 0.07 | 1 | 1016.5 |
| 20260506050521 | 57 | 336 | 6.1 | 10.4 | 0.00 | 0.10 | 0.07 | 1 | 1016.5 |
| 20260506050421 | 57 | 281 | 6.1 | 10.4 | 0.00 | 0.10 | 0.07 | 1 | 1016.5 |
| 20260506050318 | 57 | 276 | 6.1 | 10.4 | 0.00 | 0.10 | 0.07 | 1 | 1016.5 |
| 20260506050213 | 57 | 291 | 6.1 | 10.4 | 0.00 | 0.10 | 0.07 | 1 | 1016.5 |
| 20260506050112 | 57 | 269 | 6.1 | 10.4 | 0.00 | 0.10 | 0.07 | 1 | 1016.5 |
| 20260506045100 | 56 | 282 | 5.2 | 9.6 | 0.00 | 0.10 | 0.07 | 1 | 1016.5 |
| 20260506045000 | 56 | 277 | 5.2 | 9.6 | 0.00 | 0.10 | 0.07 | 1 | 1016.4 |
| 20260506044900 | 56 | 280 | 5.2 | 9.6 | 0.00 | 0.10 | 0.07 | 1 | 1016.4 |
| 20260506044800 | 56 | 281 | 5.2 | 9.6 | 0.00 | 0.10 | 0.07 | 1 | 1016.5 |
| 20260506044654 | 56 | 267 | 5.2 | 8.7 | 0.00 | 0.10 | 0.07 | 1 | 1016.5 |
| 20260506044554 | 57 | 272 | 4.3 | 8.7 | 0.00 | 0.10 | 0.07 | 1 | 1016.5 |
| 20260506044454 | 57 | 252 | 4.3 | 8.7 | 0.00 | 0.10 | 0.07 | 1 | 1016.5 |
| 20260506044354 | 57 | 291 | 4.3 | 8.7 | 0.00 | 0.10 | 0.07 | 1 | 1016.5 |
| 20260506044254 | 57 | 254 | 4.3 | 8.7 | 0.00 | 0.10 | 0.07 | 1 | 1016.5 |
| 20260506044150 | 57 | 270 | 4.3 | 8.7 | 0.00 | 0.10 | 0.07 | 1 | 1016.4 |
| 20260506044052 | 56 | 311 | 4.3 | 8.7 | 0.00 | 0.10 | 0.07 | 1 | 1016.4 |
| 20260506043950 | 56 | 271 | 4.3 | 8.7 | 0.00 | 0.10 | 0.07 | 1 | 1016.4 |
| 20260506043853 | 56 | 286 | 4.3 | 8.7 | 0.00 | 0.10 | 0.07 | 1 | 1016.4 |
| 20260506043748 | 56 | 277 | 5.2 | 8.7 | 0.00 | 0.10 | 0.07 | 1 | 1016.3 |
| 20260506043642 | 56 | 277 | 5.2 | 8.7 | 0.00 | 0.10 | 0.07 | 1 | 1016.3 |
| 20260506043542 | 56 | 255 | 5.2 | 9.6 | 0.00 | 0.10 | 0.07 | 1 | 1016.4 |
| 20260506043442 | 56 | 278 | 5.2 | 9.6 | 0.00 | 0.11 | 0.07 | 1 | 1016.3 |
| 20260506043343 | 56 | 304 | 5.2 | 9.6 | 0.00 | 0.11 | 0.07 | 1 | 1016.1 |
| 20260506043241 | 56 | 269 | 5.2 | 9.6 | 0.00 | 0.11 | 0.07 | 1 | 1016.3 |
| 20260506043136 | 56 | 312 | 5.2 | 9.6 | 0.00 | 0.11 | 0.07 | 1 | 1016.3 |
| 20260506043036 | 56 | 300 | 5.2 | 9.6 | 0.00 | 0.11 | 0.07 | 1 | 1016.3 |
| 20260506042937 | 56 | 271 | 5.2 | 9.6 | 0.00 | 0.11 | 0.07 | 1 | 1016.3 |
| 20260506042836 | 56 | 281 | 5.2 | 9.6 | 0.00 | 0.11 | 0.07 | 1 | 1016.3 |
| 20260506042736 | 56 | 295 | 5.2 | 9.6 | 0.00 | 0.11 | 0.07 | 1 | 1016.1 |
| 20260506042631 | 56 | 288 | 5.2 | 9.6 | 0.00 | 0.11 | 0.07 | 1 | 1016.1 |
| 20260506042531 | 56 | 265 | 5.2 | 9.6 | 0.00 | 0.11 | 0.07 | 1 | 1016.1 |
| 20260506042430 | 56 | 284 | 5.2 | 9.6 | 0.00 | 0.11 | 0.07 | 1 | 1016.1 |
| 20260506042330 | 56 | 283 | 5.2 | 8.7 | 0.00 | 0.11 | 0.07 | 1 | 1016.1 |
| 20260506042230 | 56 | 285 | 5.2 | 8.7 | 0.00 | 0.11 | 0.07 | 1 | 1016.1 |
| 20260506042124 | 56 | 261 | 5.2 | 8.7 | 0.00 | 0.11 | 0.07 | 1 | 1016.0 |
| 20260506042033 | 56 | 255 | 5.2 | 8.7 | 0.00 | 0.11 | 0.07 | 1 | 1016.1 |
| 20260506042029 | 56 | 273 | 5.2 | 8.7 | 0.00 | 0.11 | 0.07 | 1 | 1016.1 |
| 20260506041824 | 56 | 260 | 5.2 | 8.7 | 0.00 | 0.11 | 0.07 | 1 | 1016.0 |
| 20260506041724 | 56 | 336 | 4.3 | 8.7 | 0.00 | 0.11 | 0.07 | 1 | 1016.0 |
| 20260506041619 | 56 | 279 | 4.3 | 8.7 | 0.00 | 0.11 | 0.07 | 1 | 1016.0 |
| 20260506041518 | 56 | 279 | 4.3 | 8.7 | 0.00 | 0.11 | 0.07 | 1 | 1016.0 |
| 20260506041418 | 56 | 293 | 3.5 | 8.7 | 0.00 | 0.11 | 0.07 | 1 | 1016.0 |
| 20260506041327 | 56 | 263 | 3.5 | 7.8 | 0.00 | 0.11 | 0.07 | 1 | 1016.0 |
| 20260506041323 | 56 | 264 | 3.5 | 7.8 | 0.00 | 0.11 | 0.07 | 1 | 1016.0 |
| 20260506041120 | 56 | 267 | 3.5 | 7.8 | 0.00 | 0.11 | 0.07 | 1 | 1015.9 |
| 20260506041116 | 56 | 274 | 3.5 | 7.8 | 0.00 | 0.11 | 0.07 | 1 | 1015.9 |
| 20260506040912 | 56 | 274 | 4.3 | 8.7 | 0.00 | 0.11 | 0.07 | 1 | 1015.9 |
| 20260506040812 | 56 | 276 | 4.3 | 8.7 | 0.00 | 0.11 | 0.07 | 1 | 1015.9 |
| 20260506040712 | 56 | 275 | 4.3 | 8.7 | 0.00 | 0.11 | 0.07 | 1 | 1015.8 |
| 20260506040606 | 56 | 271 | 4.3 | 8.7 | 0.00 | 0.11 | 0.07 | 1 | 1015.8 |
| 20260506040506 | 56 | 279 | 4.3 | 8.7 | 0.00 | 0.11 | 0.07 | 1 | 1015.8 |
| 20260506040406 | 56 | 281 | 5.2 | 8.7 | 0.00 | 0.11 | 0.07 | 1 | 1015.8 |
| 20260506040306 | 56 | 271 | 5.2 | 8.7 | 0.00 | 0.11 | 0.07 | 1 | 1015.7 |
| 20260506040206 | 56 | 269 | 5.2 | 8.7 | 0.00 | 0.11 | 0.07 | 1 | 1015.8 |
| 20260506040100 | 56 | 254 | 5.2 | 8.7 | 0.00 | 0.11 | 0.07 | 1 | 1015.7 |
| 20260506040000 | 56 | 250 | 4.3 | 8.7 | 0.00 | 0.11 | 0.07 | 1 | 1015.7 |
| 20260506035900 | 56 | 271 | 4.3 | 7.8 | 0.00 | 0.11 | 0.07 | 1 | 1015.7 |
| 20260506035800 | 56 | 268 | 4.3 | 7.8 | 0.00 | 0.11 | 0.07 | 1 | 1015.7 |
| 20260506035700 | 56 | 266 | 4.3 | 7.8 | 0.00 | 0.11 | 0.07 | 1 | 1015.7 |
| 20260506035556 | 56 | 265 | 4.3 | 7.8 | 0.00 | 0.11 | 0.07 | 1 | 1015.7 |
| 20260506035456 | 56 | 248 | 5.2 | 9.6 | 0.00 | 0.11 | 0.07 | 1 | 1015.7 |
| 20260506035356 | 56 | 286 | 5.2 | 9.6 | 0.00 | 0.11 | 0.07 | 1 | 1015.7 |
| 20260506035256 | 57 | 257 | 5.2 | 9.6 | 0.00 | 0.11 | 0.07 | 1 | 1015.7 |
| 20260506035154 | 57 | 251 | 5.2 | 9.6 | 0.00 | 0.11 | 0.07 | 1 | 1015.7 |
| 20260506035048 | 57 | 269 | 5.2 | 9.6 | 0.00 | 0.11 | 0.07 | 1 | 1015.6 |
| 20260506034948 | 57 | 272 | 5.2 | 9.6 | 0.00 | 0.11 | 0.07 | 1 | 1015.6 |
| 20260506034848 | 57 | 244 | 4.3 | 9.6 | 0.00 | 0.11 | 0.07 | 1 | 1015.6 |
| 20260506034748 | 57 | 265 | 4.3 | 9.6 | 0.00 | 0.11 | 0.07 | 1 | 1015.6 |
| 20260506034648 | 57 | 229 | 4.3 | 9.6 | 0.00 | 0.11 | 0.07 | 1 | 1015.6 |
| 20260506034542 | 57 | 274 | 4.3 | 9.6 | 0.00 | 0.11 | 0.07 | 1 | 1015.6 |
| 20260506034442 | 57 | 257 | 4.3 | 9.6 | 0.00 | 0.11 | 0.07 | 1 | 1015.5 |
| 20260506034342 | 57 | 277 | 3.5 | 8.7 | 0.00 | 0.11 | 0.07 | 1 | 1015.5 |
| 20260506034242 | 57 | 274 | 3.5 | 8.7 | 0.00 | 0.11 | 0.07 | 1 | 1015.5 |
| 20260506034142 | 57 | 288 | 3.5 | 8.7 | 0.00 | 0.11 | 0.07 | 1 | 1015.5 |
| 20260506034038 | 57 | 290 | 3.5 | 8.7 | 0.00 | 0.11 | 0.07 | 1 | 1015.5 |
| 20260506033936 | 57 | 271 | 4.3 | 9.6 | 0.00 | 0.11 | 0.07 | 1 | 1015.5 |
| 20260506033836 | 57 | 275 | 4.3 | 9.6 | 0.00 | 0.11 | 0.07 | 1 | 1015.4 |
| 20260506033744 | 57 | 286 | 4.3 | 9.6 | 0.00 | 0.11 | 0.07 | 1 | 1015.4 |
| 20260506033740 | 57 | 277 | 4.3 | 9.6 | 0.00 | 0.11 | 0.07 | 1 | 1015.5 |
| 20260506033530 | 57 | 271 | 4.3 | 9.6 | 0.00 | 0.11 | 0.07 | 1 | 1015.4 |
| 20260506033430 | 57 | 249 | 4.3 | 9.6 | 0.00 | 0.11 | 0.07 | 1 | 1015.5 |
| 20260506033330 | 57 | 269 | 5.2 | 9.6 | 0.00 | 0.11 | 0.07 | 1 | 1015.4 |
| 20260506033238 | 57 | 267 | 5.2 | 9.6 | 0.00 | 0.11 | 0.07 | 1 | 1015.4 |
| 20260506033234 | 57 | 254 | 5.2 | 9.6 | 0.00 | 0.11 | 0.07 | 1 | 1015.5 |
| 20260506033024 | 57 | 263 | 5.2 | 9.6 | 0.00 | 0.11 | 0.07 | 1 | 1015.4 |
| 20260506032924 | 57 | 229 | 5.2 | 9.6 | 0.00 | 0.11 | 0.07 | 1 | 1015.4 |
| 20260506032833 | 57 | 250 | 5.2 | 8.7 | 0.00 | 0.11 | 0.07 | 1 | 1015.3 |
| 20260506032828 | 57 | 233 | 5.2 | 8.7 | 0.00 | 0.11 | 0.07 | 1 | 1015.4 |
| 20260506032624 | 57 | 242 | 5.2 | 8.7 | 0.00 | 0.11 | 0.07 | 1 | 1015.4 |
| 20260506032518 | 57 | 278 | 4.3 | 8.7 | 0.00 | 0.11 | 0.07 | 1 | 1015.3 |
| 20260506032418 | 57 | 292 | 4.3 | 8.7 | 0.00 | 0.11 | 0.07 | 1 | 1015.3 |
| 20260506032318 | 57 | 275 | 5.2 | 8.7 | 0.00 | 0.11 | 0.07 | 1 | 1015.3 |
| 20260506032218 | 57 | 284 | 5.2 | 8.7 | 0.00 | 0.11 | 0.07 | 1 | 1015.3 |
| 20260506032118 | 57 | 254 | 5.2 | 8.7 | 0.00 | 0.11 | 0.07 | 1 | 1015.3 |
| 20260506032012 | 57 | 257 | 5.2 | 8.7 | 0.00 | 0.11 | 0.07 | 1 | 1015.3 |
| 20260506031912 | 57 | 262 | 5.2 | 8.7 | 0.00 | 0.11 | 0.07 | 1 | 1015.3 |
| 20260506031812 | 57 | 294 | 5.2 | 11.3 | 0.00 | 0.11 | 0.07 | 1 | 1015.3 |
| 20260506031710 | 57 | 250 | 5.2 | 11.3 | 0.00 | 0.11 | 0.07 | 1 | 1015.3 |
| 20260506031609 | 57 | 279 | 5.2 | 11.3 | 0.00 | 0.11 | 0.07 | 1 | 1015.2 |
| 20260506031504 | 57 | 237 | 5.2 | 11.3 | 0.00 | 0.11 | 0.07 | 1 | 1015.2 |
| 20260506031404 | 57 | 284 | 5.2 | 11.3 | 0.00 | 0.11 | 0.07 | 1 | 1015.2 |
| 20260506031304 | 57 | 277 | 4.3 | 11.3 | 0.00 | 0.11 | 0.07 | 1 | 1015.1 |
| 20260506031212 | 57 | 278 | 4.3 | 11.3 | 0.00 | 0.11 | 0.07 | 1 | 1015.1 |
| 20260506031208 | 57 | 261 | 4.3 | 11.3 | 0.00 | 0.11 | 0.07 | 1 | 1015.1 |
| 20260506031004 | 57 | 281 | 4.3 | 11.3 | 0.00 | 0.11 | 0.07 | 1 | 1015.1 |
| 20260506030903 | 57 | 252 | 4.3 | 11.3 | 0.00 | 0.11 | 0.07 | 1 | 1015.1 |
| 20260506030805 | 57 | 275 | 4.3 | 8.7 | 0.00 | 0.11 | 0.07 | 1 | 1015.1 |
| 20260506030704 | 58 | 292 | 4.3 | 11.3 | 0.00 | 0.11 | 0.07 | 1 | 1015.1 |
| 20260506030602 | 58 | 274 | 4.3 | 11.3 | 0.00 | 0.11 | 0.07 | 1 | 1015.1 |
| 20260506030456 | 58 | 292 | 5.2 | 11.3 | 0.00 | 0.11 | 0.07 | 1 | 1015.1 |
| 20260506030355 | 58 | 269 | 5.2 | 11.3 | 0.00 | 0.11 | 0.07 | 1 | 1015.1 |
| 20260506030255 | 58 | 278 | 5.2 | 11.3 | 0.00 | 0.11 | 0.07 | 1 | 1015.1 |
| 20260506030156 | 58 | 274 | 6.1 | 11.3 | 0.00 | 0.11 | 0.07 | 1 | 1015.1 |
| 20260506030056 | 58 | 279 | 6.1 | 11.3 | 0.00 | 0.11 | 0.07 | 1 | 1015.1 |
| 20260506025956 | 58 | 284 | 6.1 | 11.3 | 0.00 | 0.11 | 0.07 | 1 | 1015.1 |
| 20260506025856 | 57 | 265 | 6.1 | 11.3 | 0.00 | 0.11 | 0.07 | 1 | 1015.1 |
| 20260506025756 | 57 | 229 | 6.1 | 10.4 | 0.00 | 0.11 | 0.07 | 1 | 1015.1 |
| 20260506025656 | 57 | 235 | 6.1 | 10.4 | 0.00 | 0.11 | 0.07 | 1 | 1015.1 |
| 20260506025556 | 57 | 234 | 6.1 | 10.4 | 0.00 | 0.11 | 0.07 | 1 | 1015.1 |
| 20260506025456 | 57 | 269 | 6.1 | 10.4 | 0.00 | 0.11 | 0.07 | 1 | 1015.0 |
| 20260506025358 | 57 | 323 | 6.1 | 10.4 | 0.00 | 0.11 | 0.07 | 1 | 1015.0 |
| 20260506025354 | 58 | 241 | 6.1 | 10.4 | 0.00 | 0.11 | 0.07 | 1 | 1015.0 |
| 20260506025150 | 58 | 271 | 6.1 | 10.4 | 0.00 | 0.11 | 0.07 | 1 | 1015.0 |
| 20260506025059 | 58 | 265 | 6.1 | 9.6 | 0.00 | 0.11 | 0.07 | 1 | 1015.0 |
| 20260506025054 | 58 | 285 | 6.1 | 9.6 | 0.00 | 0.11 | 0.07 | 1 | 1015.0 |
| 20260506024850 | 58 | 268 | 6.1 | 10.4 | 0.00 | 0.11 | 0.07 | 1 | 1015.0 |
| 20260506024747 | 58 | 238 | 6.1 | 10.4 | 0.00 | 0.11 | 0.07 | 1 | 1015.0 |
| 20260506024647 | 58 | 265 | 7.0 | 11.3 | 0.00 | 0.11 | 0.07 | 1 | 1014.9 |
| 20260506024548 | 58 | 250 | 7.0 | 11.3 | 0.00 | 0.11 | 0.07 | 1 | 1015.0 |
| 20260506024448 | 58 | 211 | 7.0 | 11.3 | 0.00 | 0.11 | 0.07 | 1 | 1015.0 |
| 20260506024348 | 58 | 239 | 7.0 | 12.2 | 0.00 | 0.11 | 0.07 | 1 | 1014.9 |
| 20260506024248 | 58 | 240 | 7.8 | 12.2 | 0.00 | 0.11 | 0.07 | 1 | 1014.9 |
| 20260506024149 | 58 | 229 | 7.0 | 12.2 | 0.00 | 0.11 | 0.07 | 1 | 1014.9 |
| 20260506024048 | 58 | 217 | 7.0 | 12.2 | 0.00 | 0.11 | 0.07 | 1 | 1014.9 |
| 20260506023948 | 58 | 282 | 7.0 | 12.2 | 0.00 | 0.11 | 0.07 | 1 | 1015.0 |
| 20260506023848 | 58 | 227 | 7.8 | 12.2 | 0.00 | 0.11 | 0.07 | 1 | 1015.0 |
| 20260506023748 | 58 | 277 | 7.0 | 12.2 | 0.00 | 0.11 | 0.07 | 1 | 1015.0 |
| 20260506023649 | 58 | 246 | 7.0 | 12.2 | 0.00 | 0.11 | 0.07 | 1 | 1014.9 |
| 20260506023547 | 58 | 246 | 7.0 | 12.2 | 0.00 | 0.11 | 0.07 | 1 | 1015.0 |
| 20260506023447 | 58 | 229 | 7.0 | 13.0 | 0.00 | 0.11 | 0.07 | 1 | 1014.9 |
| 20260506023348 | 58 | 229 | 7.0 | 13.0 | 0.00 | 0.11 | 0.07 | 1 | 1014.9 |
| 20260506023248 | 58 | 271 | 7.0 | 13.0 | 0.00 | 0.11 | 0.07 | 1 | 1015.0 |
| 20260506023148 | 58 | 251 | 7.8 | 13.0 | 0.00 | 0.11 | 0.07 | 1 | 1014.9 |
| 20260506023044 | 58 | 259 | 7.8 | 13.0 | 0.00 | 0.11 | 0.07 | 1 | 1014.9 |
| 20260506022944 | 58 | 198 | 7.8 | 13.0 | 0.00 | 0.11 | 0.07 | 1 | 1014.9 |
| 20260506022844 | 58 | 243 | 7.8 | 13.0 | 0.00 | 0.11 | 0.07 | 1 | 1014.9 |
| 20260506022744 | 58 | 225 | 7.8 | 13.0 | 0.00 | 0.11 | 0.07 | 1 | 1014.9 |
| 20260506022644 | 58 | 263 | 8.7 | 13.0 | 0.00 | 0.11 | 0.07 | 1 | 1014.9 |
| 20260506022544 | 58 | 242 | 8.7 | 13.0 | 0.00 | 0.11 | 0.07 | 1 | 1014.8 |
| 20260506022443 | 58 | 247 | 8.7 | 13.0 | 0.00 | 0.11 | 0.07 | 1 | 1014.8 |
| 20260506022344 | 58 | 253 | 8.7 | 13.0 | 0.00 | 0.11 | 0.07 | 1 | 1014.8 |
| 20260506022243 | 58 | 257 | 8.7 | 13.9 | 0.00 | 0.11 | 0.07 | 1 | 1014.8 |
| 20260506022143 | 58 | 245 | 8.7 | 13.9 | 0.00 | 0.11 | 0.07 | 1 | 1014.8 |
| 20260506022044 | 58 | 265 | 8.7 | 13.9 | 0.00 | 0.11 | 0.07 | 1 | 1014.7 |
| 20260506021944 | 58 | 271 | 8.7 | 13.9 | 0.00 | 0.11 | 0.07 | 1 | 1014.7 |
| 20260506021844 | 58 | 265 | 9.6 | 13.9 | 0.00 | 0.11 | 0.07 | 1 | 1014.7 |
| 20260506021744 | 58 | 237 | 8.7 | 13.9 | 0.00 | 0.11 | 0.07 | 1 | 1014.7 |
| 20260506021644 | 58 | 263 | 8.7 | 13.9 | 0.00 | 0.11 | 0.07 | 1 | 1014.7 |
| 20260506021544 | 58 | 244 | 8.7 | 13.9 | 0.00 | 0.11 | 0.07 | 1 | 1014.7 |
| 20260506021442 | 58 | 306 | 8.7 | 13.9 | 0.00 | 0.11 | 0.07 | 1 | 1014.7 |
| 20260506021341 | 58 | 255 | 8.7 | 13.9 | 0.00 | 0.11 | 0.07 | 1 | 1014.6 |
| 20260506021241 | 58 | 247 | 8.7 | 13.9 | 0.00 | 0.11 | 0.07 | 1 | 1014.7 |
| 20260506021151 | 58 | 213 | 7.8 | 13.9 | 0.00 | 0.11 | 0.07 | 1 | 1014.7 |
| 20260506021147 | 58 | 225 | 7.8 | 13.9 | 0.00 | 0.11 | 0.07 | 1 | 1014.6 |
| 20260506020942 | 58 | 238 | 7.8 | 13.9 | 0.00 | 0.11 | 0.07 | 1 | 1014.7 |
| 20260506020842 | 58 | 226 | 7.8 | 13.9 | 0.00 | 0.11 | 0.07 | 1 | 1014.7 |
| 20260506020742 | 58 | 223 | 7.8 | 13.0 | 0.00 | 0.11 | 0.07 | 1 | 1014.6 |
| 20260506020635 | 58 | 235 | 7.8 | 13.0 | 0.00 | 0.11 | 0.07 | 1 | 1014.7 |
| 20260506020536 | 58 | 217 | 8.7 | 13.9 | 0.00 | 0.11 | 0.07 | 1 | 1014.7 |
| 20260506020436 | 58 | 261 | 7.8 | 13.9 | 0.00 | 0.11 | 0.07 | 1 | 1014.7 |
| 20260506020336 | 58 | 202 | 8.7 | 13.9 | 0.00 | 0.11 | 0.07 | 1 | 1014.7 |
| 20260506020236 | 58 | 282 | 8.7 | 13.9 | 0.00 | 0.11 | 0.07 | 1 | 1014.7 |
| 20260506020136 | 58 | 200 | 8.7 | 13.9 | 0.00 | 0.11 | 0.07 | 1 | 1014.7 |
| 20260506020035 | 58 | 240 | 8.7 | 14.8 | 0.00 | 0.11 | 0.07 | 1 | 1014.7 |
| 20260506015944 | 58 | 227 | 8.7 | 14.8 | 0.00 | 0.11 | 0.07 | 1 | 1014.7 |
| 20260506015940 | 58 | 261 | 8.7 | 14.8 | 0.00 | 0.11 | 0.07 | 1 | 1014.7 |
| 20260506015736 | 58 | 223 | 8.7 | 14.8 | 0.00 | 0.11 | 0.07 | 1 | 1014.7 |
| 20260506015636 | 58 | 247 | 8.7 | 14.8 | 0.00 | 0.11 | 0.07 | 1 | 1014.7 |
| 20260506015541 | 58 | 224 | 8.7 | 14.8 | 0.00 | 0.11 | 0.07 | 1 | 1014.7 |
| 20260506015536 | 58 | 237 | 8.7 | 14.8 | 0.00 | 0.11 | 0.07 | 1 | 1014.7 |
| 20260506015340 | 58 | 238 | 8.7 | 14.8 | 0.00 | 0.11 | 0.07 | 1 | 1014.7 |
| 20260506015336 | 58 | 240 | 8.7 | 14.8 | 0.00 | 0.11 | 0.07 | 1 | 1014.7 |
| 20260506015132 | 58 | 245 | 8.7 | 14.8 | 0.00 | 0.11 | 0.07 | 1 | 1014.7 |
| 20260506015032 | 58 | 246 | 8.7 | 13.9 | 0.00 | 0.11 | 0.07 | 1 | 1014.8 |
| 20260506014929 | 58 | 225 | 8.7 | 13.9 | 0.00 | 0.11 | 0.07 | 1 | 1014.8 |
| 20260506014830 | 58 | 226 | 7.8 | 13.9 | 0.00 | 0.11 | 0.07 | 1 | 1014.8 |
| 20260506014730 | 58 | 279 | 8.7 | 13.9 | 0.00 | 0.11 | 0.07 | 1 | 1014.8 |
| 20260506014630 | 58 | 270 | 8.7 | 13.9 | 0.00 | 0.11 | 0.07 | 1 | 1014.7 |
| 20260506014530 | 58 | 236 | 8.7 | 13.9 | 0.00 | 0.11 | 0.07 | 1 | 1014.8 |
| 20260506014430 | 58 | 251 | 8.7 | 13.9 | 0.00 | 0.11 | 0.07 | 1 | 1014.7 |
| 20260506014330 | 58 | 236 | 8.7 | 13.9 | 0.00 | 0.11 | 0.07 | 1 | 1014.7 |
| 20260506014226 | 59 | 248 | 8.7 | 13.9 | 0.00 | 0.11 | 0.07 | 1 | 1014.8 |
| 20260506014126 | 59 | 219 | 8.7 | 13.0 | 0.00 | 0.11 | 0.07 | 1 | 1014.8 |
| 20260506014026 | 59 | 212 | 8.7 | 13.0 | 0.00 | 0.11 | 0.07 | 1 | 1014.8 |
| 20260506013925 | 59 | 222 | 8.7 | 13.9 | 0.00 | 0.11 | 0.07 | 1 | 1014.7 |
| 20260506013826 | 58 | 238 | 8.7 | 13.9 | 0.00 | 0.11 | 0.07 | 1 | 1014.7 |
| 20260506013726 | 58 | 221 | 8.7 | 13.9 | 0.00 | 0.11 | 0.07 | 1 | 1014.8 |
| 20260506013625 | 59 | 224 | 8.7 | 13.9 | 0.00 | 0.11 | 0.07 | 1 | 1014.7 |
| 20260506013526 | 58 | 231 | 7.8 | 13.9 | 0.00 | 0.11 | 0.07 | 1 | 1014.7 |
| 20260506013426 | 58 | 257 | 7.8 | 13.9 | 0.00 | 0.11 | 0.07 | 1 | 1014.8 |
| 20260506013326 | 58 | 277 | 7.8 | 13.9 | 0.00 | 0.11 | 0.07 | 1 | 1014.7 |
| 20260506013226 | 59 | 232 | 7.8 | 13.9 | 0.00 | 0.11 | 0.07 | 1 | 1014.8 |
| 20260506013126 | 59 | 234 | 7.0 | 13.9 | 0.00 | 0.11 | 0.07 | 1 | 1014.8 |
| 20260506013027 | 59 | 225 | 7.0 | 13.9 | 0.00 | 0.11 | 0.07 | 1 | 1014.8 |
| 20260506012926 | 59 | 225 | 7.0 | 12.2 | 0.00 | 0.11 | 0.07 | 1 | 1014.8 |
| 20260506012826 | 59 | 232 | 7.0 | 12.2 | 0.00 | 0.11 | 0.07 | 1 | 1014.8 |
| 20260506012726 | 59 | 237 | 7.0 | 12.2 | 0.00 | 0.11 | 0.07 | 1 | 1014.8 |
| 20260506012626 | 59 | 238 | 7.0 | 12.2 | 0.00 | 0.11 | 0.07 | 1 | 1014.8 |
| 20260506012526 | 59 | 254 | 7.8 | 12.2 | 0.00 | 0.11 | 0.07 | 1 | 1014.8 |
| 20260506012425 | 59 | 263 | 7.8 | 12.2 | 0.00 | 0.11 | 0.07 | 1 | 1014.8 |
| 20260506012322 | 59 | 255 | 7.8 | 12.2 | 0.00 | 0.11 | 0.07 | 1 | 1014.8 |
| 20260506012222 | 59 | 251 | 7.8 | 12.2 | 0.00 | 0.11 | 0.07 | 1 | 1014.7 |
| 20260506012122 | 59 | 238 | 7.8 | 13.0 | 0.00 | 0.11 | 0.07 | 1 | 1014.7 |
| 20260506012022 | 59 | 244 | 7.8 | 13.0 | 0.00 | 0.11 | 0.07 | 1 | 1014.7 |
| 20260506011922 | 59 | 229 | 7.8 | 13.0 | 0.00 | 0.11 | 0.07 | 1 | 1014.7 |
| 20260506011822 | 59 | 270 | 7.8 | 13.0 | 0.00 | 0.11 | 0.07 | 1 | 1014.7 |
| 20260506011722 | 59 | 275 | 7.8 | 13.0 | 0.00 | 0.11 | 0.07 | 1 | 1014.7 |
| 20260506011622 | 59 | 255 | 7.8 | 13.0 | 0.00 | 0.11 | 0.07 | 1 | 1014.7 |
| 20260506011530 | 59 | 234 | 7.8 | 13.0 | 0.00 | 0.11 | 0.07 | 1 | 1014.7 |
| 20260506011526 | 59 | 253 | 7.8 | 13.0 | 0.00 | 0.11 | 0.07 | 1 | 1014.7 |
| 20260506011322 | 59 | 244 | 7.8 | 13.0 | 0.00 | 0.11 | 0.07 | 1 | 1014.7 |
| 20260506011222 | 59 | 249 | 8.7 | 13.0 | 0.00 | 0.11 | 0.07 | 1 | 1014.7 |
| 20260506011121 | 59 | 219 | 8.7 | 13.0 | 0.00 | 0.11 | 0.07 | 1 | 1014.7 |
| 20260506011022 | 59 | 292 | 8.7 | 13.0 | 0.00 | 0.11 | 0.07 | 1 | 1014.7 |
| 20260506010922 | 59 | 211 | 8.7 | 13.0 | 0.00 | 0.11 | 0.07 | 1 | 1014.7 |
| 20260506010831 | 59 | 253 | 8.7 | 13.9 | 0.00 | 0.11 | 0.07 | 1 | 1014.6 |
| 20260506010826 | 59 | 269 | 8.7 | 13.0 | 0.00 | 0.11 | 0.07 | 1 | 1014.7 |
| 20260506010622 | 59 | 225 | 8.7 | 13.9 | 0.00 | 0.11 | 0.07 | 1 | 1014.6 |
| 20260506010522 | 59 | 260 | 8.7 | 13.9 | 0.00 | 0.11 | 0.07 | 1 | 1014.6 |
| 20260506010418 | 59 | 218 | 9.6 | 13.9 | 0.00 | 0.11 | 0.07 | 1 | 1014.7 |
| 20260506010317 | 59 | 261 | 8.7 | 13.9 | 0.00 | 0.11 | 0.07 | 1 | 1014.6 |
| 20260506010217 | 59 | 227 | 9.6 | 13.9 | 0.00 | 0.11 | 0.07 | 1 | 1014.7 |
| 20260506010118 | 59 | 236 | 8.7 | 13.9 | 0.00 | 0.11 | 0.07 | 1 | 1014.6 |
| 20260506010017 | 59 | 236 | 8.7 | 13.9 | 0.00 | 0.11 | 0.07 | 1 | 1014.7 |
| 20260506005917 | 59 | 260 | 9.6 | 13.9 | 0.00 | 0.11 | 0.07 | 1 | 1014.7 |
| 20260506005817 | 59 | 237 | 8.7 | 13.9 | 0.00 | 0.11 | 0.07 | 1 | 1014.7 |
| 20260506005717 | 59 | 206 | 8.7 | 13.9 | 0.00 | 0.11 | 0.07 | 1 | 1014.7 |
| 20260506005618 | 59 | 217 | 8.7 | 13.9 | 0.00 | 0.11 | 0.07 | 1 | 1014.7 |
| 20260506005518 | 59 | 223 | 8.7 | 13.0 | 0.00 | 0.11 | 0.07 | 1 | 1014.7 |
| 20260506005418 | 59 | 232 | 8.7 | 13.0 | 0.00 | 0.11 | 0.07 | 1 | 1014.6 |
| 20260506005317 | 59 | 232 | 8.7 | 13.9 | 0.00 | 0.11 | 0.07 | 1 | 1014.6 |
| 20260506005217 | 59 | 223 | 8.7 | 13.9 | 0.00 | 0.11 | 0.07 | 1 | 1014.6 |
| 20260506005117 | 59 | 292 | 8.7 | 13.9 | 0.00 | 0.11 | 0.07 | 1 | 1014.6 |
| 20260506005018 | 59 | 222 | 8.7 | 13.9 | 0.00 | 0.11 | 0.07 | 1 | 1014.7 |
| 20260506004918 | 59 | 233 | 8.7 | 13.9 | 0.00 | 0.11 | 0.07 | 1 | 1014.7 |
| 20260506004818 | 59 | 236 | 8.7 | 13.9 | 0.00 | 0.11 | 0.07 | 1 | 1014.7 |
| 20260506004718 | 59 | 229 | 8.7 | 13.9 | 0.00 | 0.11 | 0.07 | 1 | 1014.6 |
| 20260506004617 | 59 | 205 | 8.7 | 13.9 | 0.00 | 0.11 | 0.07 | 1 | 1014.6 |
| 20260506004521 | 59 | 251 | 8.7 | 13.0 | 0.00 | 0.11 | 0.07 | 1 | 1014.6 |
| 20260506004516 | 59 | 231 | 8.7 | 13.9 | 0.00 | 0.11 | 0.07 | 1 | 1014.6 |
| 20260506004312 | 59 | 225 | 8.7 | 13.9 | 0.00 | 0.11 | 0.07 | 1 | 1014.5 |
| 20260506004212 | 60 | 219 | 8.7 | 13.9 | 0.00 | 0.11 | 0.07 | 1 | 1014.5 |
| 20260506004111 | 60 | 230 | 8.7 | 13.9 | 0.00 | 0.11 | 0.07 | 1 | 1014.5 |
| 20260506004010 | 60 | 238 | 8.7 | 14.8 | 0.00 | 0.11 | 0.07 | 1 | 1014.5 |
| 20260506003910 | 59 | 217 | 9.6 | 14.8 | 0.00 | 0.11 | 0.07 | 1 | 1014.5 |
| 20260506003810 | 59 | 211 | 9.6 | 14.8 | 0.00 | 0.11 | 0.07 | 1 | 1014.5 |
| 20260506003709 | 59 | 220 | 9.6 | 14.8 | 0.00 | 0.11 | 0.07 | 1 | 1014.5 |
| 20260506003609 | 59 | 227 | 9.6 | 14.8 | 0.00 | 0.11 | 0.07 | 1 | 1014.4 |
| 20260506003510 | 59 | 241 | 9.6 | 14.8 | 0.00 | 0.11 | 0.07 | 1 | 1014.5 |
| 20260506003408 | 59 | 244 | 9.6 | 14.8 | 0.00 | 0.11 | 0.07 | 1 | 1014.4 |
| 20260506003316 | 59 | 232 | 9.6 | 14.8 | 0.00 | 0.11 | 0.07 | 1 | 1014.4 |
| 20260506003312 | 59 | 255 | 9.6 | 14.8 | 0.00 | 0.11 | 0.07 | 1 | 1014.5 |
| 20260506003107 | 59 | 254 | 9.6 | 14.8 | 0.00 | 0.11 | 0.07 | 1 | 1014.4 |
| 20260506003007 | 59 | 261 | 9.6 | 13.9 | 0.00 | 0.11 | 0.07 | 1 | 1014.4 |
| 20260506002907 | 59 | 240 | 9.6 | 16.5 | 0.00 | 0.11 | 0.07 | 1 | 1014.4 |
| 20260506002807 | 59 | 229 | 9.6 | 16.5 | 0.00 | 0.11 | 0.07 | 1 | 1014.4 |
| 20260506002707 | 59 | 234 | 9.6 | 16.5 | 0.00 | 0.11 | 0.07 | 1 | 1014.4 |
| 20260506002607 | 59 | 211 | 10.4 | 16.5 | 0.00 | 0.11 | 0.07 | 1 | 1014.4 |
| 20260506002507 | 59 | 309 | 9.6 | 16.5 | 0.00 | 0.11 | 0.07 | 1 | 1014.4 |
| 20260506002407 | 59 | 241 | 10.4 | 16.5 | 0.00 | 0.11 | 0.07 | 1 | 1014.4 |
| 20260506002300 | 59 | 238 | 10.4 | 16.5 | 0.00 | 0.11 | 0.07 | 1 | 1014.4 |
| 20260506002159 | 59 | 241 | 9.6 | 16.5 | 0.00 | 0.11 | 0.07 | 1 | 1014.4 |
| 20260506002100 | 59 | 244 | 10.4 | 16.5 | 0.00 | 0.11 | 0.07 | 1 | 1014.4 |
| 20260506002000 | 59 | 232 | 10.4 | 16.5 | 0.00 | 0.11 | 0.07 | 1 | 1014.4 |
| 20260506001859 | 59 | 221 | 10.4 | 16.5 | 0.00 | 0.11 | 0.07 | 1 | 1014.4 |
| 20260506001755 | 59 | 244 | 10.4 | 16.5 | 0.00 | 0.11 | 0.07 | 1 | 1014.3 |
| 20260506001654 | 59 | 252 | 9.6 | 15.6 | 0.00 | 0.11 | 0.07 | 1 | 1014.4 |
| 20260506001554 | 59 | 205 | 10.4 | 15.6 | 0.00 | 0.11 | 0.07 | 1 | 1014.3 |
| 20260506001453 | 59 | 250 | 10.4 | 15.6 | 0.00 | 0.11 | 0.07 | 1 | 1014.3 |
| 20260506001353 | 59 | 254 | 9.6 | 15.6 | 0.00 | 0.11 | 0.07 | 1 | 1014.3 |
| 20260506001246 | 59 | 250 | 9.6 | 15.6 | 0.00 | 0.11 | 0.07 | 1 | 1014.3 |
| 20260506001146 | 59 | 245 | 9.6 | 15.6 | 0.00 | 0.11 | 0.07 | 1 | 1014.3 |
| 20260506001054 | 59 | 254 | 9.6 | 14.8 | 0.00 | 0.11 | 0.07 | 1 | 1014.3 |
| 20260506001050 | 59 | 249 | 9.6 | 14.8 | 0.00 | 0.11 | 0.07 | 1 | 1014.3 |
| 20260506000845 | 59 | 261 | 9.6 | 13.9 | 0.00 | 0.11 | 0.07 | 1 | 1014.4 |
| 20260506000744 | 59 | 214 | 9.6 | 14.8 | 0.00 | 0.11 | 0.07 | 1 | 1014.4 |
| 20260506000644 | 59 | 252 | 9.6 | 14.8 | 0.00 | 0.11 | 0.07 | 1 | 1014.4 |
| 20260506000542 | 59 | 240 | 9.6 | 14.8 | 0.00 | 0.11 | 0.07 | 1 | 1014.4 |
| 20260506000441 | 59 | 238 | 9.6 | 14.8 | 0.00 | 0.11 | 0.07 | 1 | 1014.4 |
| 20260506000341 | 59 | 247 | 9.6 | 14.8 | 0.00 | 0.11 | 0.07 | 1 | 1014.4 |
| 20260506000241 | 59 | 273 | 8.7 | 14.8 | 0.00 | 0.11 | 0.07 | 1 | 1014.4 |
| 20260506000141 | 59 | 295 | 8.7 | 14.8 | 0.00 | 0.11 | 0.07 | 1 | 1014.4 |
| 20260506000040 | 59 | 277 | 8.7 | 14.8 | 0.00 | 0.11 | 0.07 | 1 | 1014.4 |
| 20260505235940 | 59 | 215 | 8.7 | 14.8 | 0.00 | 0.11 | 0.07 | 1 | 1014.4 |
| 20260505235840 | 59 | 242 | 7.8 | 14.8 | 0.00 | 0.11 | 0.07 | 1 | 1014.4 |
| 20260505235738 | 59 | 238 | 7.8 | 14.8 | 0.00 | 0.11 | 0.07 | 1 | 1014.4 |
| 20260505235637 | 60 | 233 | 7.8 | 14.8 | 0.00 | 0.11 | 0.07 | 1 | 1014.4 |
| 20260505235538 | 59 | 222 | 7.8 | 12.2 | 0.00 | 0.11 | 0.07 | 1 | 1014.4 |
| 20260505235438 | 59 | 271 | 7.8 | 13.9 | 0.00 | 0.11 | 0.07 | 1 | 1014.4 |
| 20260505235337 | 59 | 293 | 7.0 | 13.9 | 0.00 | 0.11 | 0.07 | 1 | 1014.4 |
| 20260505235237 | 59 | 217 | 7.0 | 13.9 | 0.00 | 0.11 | 0.07 | 1 | 1014.4 |
| 20260505235145 | 59 | 265 | 7.8 | 13.9 | 0.00 | 0.11 | 0.07 | 1 | 1014.4 |
| 20260505235036 | 59 | 238 | 7.8 | 13.9 | 0.00 | 0.11 | 0.07 | 1 | 1014.4 |
| 20260505234832 | 60 | 234 | 7.8 | 13.9 | 0.00 | 0.11 | 0.07 | 1 | 1014.4 |
| 20260505234732 | 59 | 231 | 7.8 | 13.9 | 0.00 | 0.11 | 0.07 | 1 | 1014.4 |
| 20260505234631 | 59 | 272 | 7.8 | 13.9 | 0.00 | 0.11 | 0.07 | 1 | 1014.4 |
| 20260505234533 | 59 | 237 | 7.8 | 13.9 | 0.00 | 0.11 | 0.07 | 1 | 1014.4 |
| 20260505234529 | 60 | 234 | 7.8 | 13.9 | 0.00 | 0.11 | 0.07 | 1 | 1014.4 |
| 20260505234326 | 59 | 234 | 7.8 | 13.9 | 0.00 | 0.11 | 0.07 | 1 | 1014.5 |
| 20260505234226 | 59 | 227 | 7.8 | 13.9 | 0.00 | 0.11 | 0.07 | 1 | 1014.4 |
| 20260505234124 | 59 | 246 | 7.8 | 13.9 | 0.00 | 0.11 | 0.07 | 1 | 1014.5 |
| 20260505234028 | 59 | 236 | 7.0 | 13.9 | 0.00 | 0.11 | 0.07 | 1 | 1014.4 |
| 20260505234023 | 59 | 227 | 7.0 | 13.9 | 0.00 | 0.11 | 0.07 | 1 | 1014.4 |
| 20260505233820 | 59 | 277 | 7.8 | 13.0 | 0.00 | 0.11 | 0.07 | 1 | 1014.5 |
| 20260505233720 | 59 | 233 | 7.8 | 13.0 | 0.00 | 0.11 | 0.07 | 1 | 1014.5 |
| 20260505233619 | 59 | 234 | 8.7 | 13.0 | 0.00 | 0.11 | 0.07 | 1 | 1014.5 |
| 20260505233522 | 59 | 240 | 8.7 | 13.0 | 0.00 | 0.11 | 0.07 | 1 | 1014.5 |
| 20260505233517 | 59 | 246 | 8.7 | 13.0 | 0.00 | 0.11 | 0.07 | 1 | 1014.5 |
| 20260505233314 | 59 | 259 | 8.7 | 13.0 | 0.00 | 0.11 | 0.07 | 1 | 1014.5 |
| 20260505233214 | 59 | 281 | 8.7 | 13.0 | 0.00 | 0.11 | 0.07 | 1 | 1014.5 |
| 20260505233112 | 59 | 225 | 9.6 | 13.0 | 0.00 | 0.11 | 0.07 | 1 | 1014.5 |
| 20260505233015 | 59 | 248 | 9.6 | 13.9 | 0.00 | 0.11 | 0.07 | 1 | 1014.5 |
| 20260505233011 | 59 | 221 | 9.6 | 13.9 | 0.00 | 0.11 | 0.07 | 1 | 1014.5 |
| 20260505232807 | 59 | 249 | 9.6 | 13.9 | 0.00 | 0.11 | 0.07 | 1 | 1014.5 |
| 20260505232708 | 59 | 224 | 8.7 | 13.9 | 0.00 | 0.11 | 0.07 | 1 | 1014.6 |
| 20260505232607 | 59 | 232 | 9.6 | 14.8 | 0.00 | 0.11 | 0.07 | 1 | 1014.5 |
| 20260505232501 | 59 | 227 | 9.6 | 14.8 | 0.00 | 0.11 | 0.07 | 1 | 1014.5 |
| 20260505232401 | 59 | 296 | 9.6 | 15.6 | 0.00 | 0.11 | 0.07 | 1 | 1014.6 |
| 20260505232301 | 59 | 218 | 10.4 | 16.5 | 0.00 | 0.11 | 0.07 | 1 | 1014.6 |
| 20260505232201 | 59 | 252 | 10.4 | 16.5 | 0.00 | 0.11 | 0.07 | 1 | 1014.6 |
| 20260505232114 | 59 | 253 | 9.6 | 16.5 | 0.00 | 0.11 | 0.07 | 1 | 1014.6 |
| 20260505232110 | 59 | 233 | 9.6 | 16.5 | 0.00 | 0.11 | 0.07 | 1 | 1014.6 |
| 20260505232106 | 59 | 262 | 9.6 | 16.5 | 0.00 | 0.11 | 0.07 | 1 | 1014.6 |
| 20260505231757 | 59 | 207 | 9.6 | 16.5 | 0.00 | 0.11 | 0.07 | 1 | 1014.6 |
| 20260505231656 | 59 | 217 | 9.6 | 16.5 | 0.00 | 0.11 | 0.07 | 1 | 1014.6 |
| 20260505231556 | 59 | 241 | 9.6 | 16.5 | 0.00 | 0.11 | 0.07 | 1 | 1014.6 |
| 20260505231452 | 59 | 231 | 9.6 | 16.5 | 0.00 | 0.11 | 0.07 | 1 | 1014.6 |
| 20260505231352 | 59 | 226 | 9.6 | 13.9 | 0.00 | 0.11 | 0.07 | 1 | 1014.6 |
| 20260505231249 | 59 | 262 | 9.6 | 13.9 | 0.00 | 0.11 | 0.07 | 1 | 1014.6 |
| 20260505231149 | 59 | 246 | 9.6 | 15.6 | 0.00 | 0.11 | 0.07 | 1 | 1014.6 |
| 20260505231049 | 59 | 211 | 9.6 | 15.6 | 0.00 | 0.11 | 0.07 | 1 | 1014.5 |
| 20260505230948 | 59 | 221 | 9.6 | 15.6 | 0.00 | 0.11 | 0.07 | 1 | 1014.5 |
| 20260505230848 | 59 | 246 | 9.6 | 15.6 | 0.00 | 0.11 | 0.07 | 1 | 1014.6 |
| 20260505230747 | 59 | 250 | 9.6 | 15.6 | 0.00 | 0.11 | 0.07 | 1 | 1014.5 |
| 20260505230647 | 59 | 229 | 9.6 | 15.6 | 0.00 | 0.11 | 0.07 | 1 | 1014.5 |
| 20260505230547 | 59 | 221 | 9.6 | 15.6 | 0.00 | 0.11 | 0.07 | 1 | 1014.5 |
| 20260505230447 | 59 | 259 | 9.6 | 15.6 | 0.00 | 0.11 | 0.07 | 1 | 1014.5 |
| 20260505230347 | 59 | 242 | 9.6 | 15.6 | 0.00 | 0.11 | 0.07 | 1 | 1014.4 |
| 20260505230247 | 59 | 257 | 9.6 | 15.6 | 0.00 | 0.11 | 0.07 | 1 | 1014.5 |
| 20260505230147 | 59 | 219 | 8.7 | 14.8 | 0.00 | 0.11 | 0.07 | 1 | 1014.5 |
| 20260505230048 | 59 | 236 | 8.7 | 13.0 | 0.00 | 0.11 | 0.07 | 1 | 1014.6 |
| 20260505225945 | 59 | 251 | 8.7 | 13.0 | 0.00 | 0.11 | 0.07 | 1 | 1014.5 |
| 20260505225845 | 59 | 255 | 9.6 | 13.0 | 0.00 | 0.11 | 0.07 | 3 | 1014.5 |
| 20260505225745 | 59 | 242 | 9.6 | 13.0 | 0.00 | 0.11 | 0.07 | 1 | 1014.5 |
| 20260505225654 | 59 | 240 | 8.7 | 13.0 | 0.00 | 0.11 | 0.07 | 6 | 1014.6 |
| 20260505225649 | 59 | 229 | 8.7 | 13.0 | 0.00 | 0.11 | 0.07 | 6 | 1014.5 |
| 20260505225445 | 59 | 245 | 7.8 | 13.0 | 0.00 | 0.11 | 0.07 | 1 | 1014.6 |
| 20260505225345 | 59 | 281 | 7.8 | 13.0 | 0.00 | 0.11 | 0.07 | 2 | 1014.5 |
| 20260505225239 | 59 | 269 | 8.7 | 13.0 | 0.00 | 0.11 | 0.07 | 3 | 1014.5 |
| 20260505225139 | 59 | 215 | 8.7 | 13.0 | 0.00 | 0.11 | 0.07 | 3 | 1014.4 |
| 20260505225040 | 59 | 244 | 8.7 | 13.0 | 0.00 | 0.11 | 0.07 | 1 | 1014.5 |
| 20260505224940 | 60 | 252 | 7.8 | 14.8 | 0.00 | 0.11 | 0.07 | 1 | 1014.5 |
| 20260505224838 | 60 | 279 | 7.8 | 14.8 | 0.00 | 0.11 | 0.07 | 1 | 1014.5 |
| 20260505224733 | 60 | 250 | 8.7 | 14.8 | 0.00 | 0.11 | 0.07 | 1 | 1014.5 |
| 20260505224646 | 59 | 239 | 8.7 | 14.8 | 0.00 | 0.11 | 0.07 | 1 | 1014.5 |
| 20260505224537 | 59 | 248 | 9.6 | 14.8 | 0.00 | 0.11 | 0.07 | 1 | 1014.5 |
| 20260505224334 | 59 | 226 | 9.6 | 14.8 | 0.00 | 0.11 | 0.07 | 1 | 1014.5 |
| 20260505224227 | 59 | 229 | 9.6 | 14.8 | 0.00 | 0.11 | 0.07 | 1 | 1014.5 |
| 20260505224127 | 59 | 221 | 9.6 | 14.8 | 0.00 | 0.11 | 0.07 | 1 | 1014.5 |
| 20260505224027 | 59 | 209 | 9.6 | 14.8 | 0.00 | 0.11 | 0.07 | 1 | 1014.5 |
| 20260505223927 | 59 | 250 | 9.6 | 14.8 | 0.00 | 0.11 | 0.07 | 1 | 1014.5 |
| 20260505223827 | 59 | 243 | 9.6 | 14.8 | 0.00 | 0.11 | 0.07 | 1 | 1014.5 |
| 20260505223721 | 59 | 285 | 9.6 | 14.8 | 0.00 | 0.11 | 0.07 | 1 | 1014.4 |
| 20260505223621 | 59 | 229 | 8.7 | 14.8 | 0.00 | 0.11 | 0.07 | 1 | 1014.5 |
| 20260505223521 | 59 | 223 | 8.7 | 14.8 | 0.00 | 0.11 | 0.07 | 1 | 1014.5 |
| 20260505223422 | 59 | 234 | 8.7 | 14.8 | 0.00 | 0.11 | 0.07 | 1 | 1014.4 |
| 20260505223321 | 59 | 252 | 8.7 | 13.0 | 0.00 | 0.11 | 0.07 | 1 | 1014.5 |
| 20260505223215 | 59 | 213 | 8.7 | 13.0 | 0.00 | 0.11 | 0.07 | 1 | 1014.5 |
| 20260505223116 | 59 | 248 | 8.7 | 13.0 | 0.00 | 0.11 | 0.07 | 1 | 1014.5 |
| 20260505223023 | 59 | 234 | 7.8 | 13.0 | 0.00 | 0.11 | 0.07 | 1 | 1014.6 |
| 20260505223019 | 59 | 197 | 7.8 | 13.0 | 0.00 | 0.11 | 0.07 | 1 | 1014.5 |
| 20260505222815 | 59 | 252 | 8.7 | 13.0 | 0.00 | 0.11 | 0.07 | 1 | 1014.6 |
| 20260505222709 | 59 | 226 | 8.7 | 13.0 | 0.00 | 0.11 | 0.07 | 1 | 1014.6 |
| 20260505222609 | 59 | 225 | 8.7 | 13.0 | 0.00 | 0.11 | 0.07 | 1 | 1014.6 |
| 20260505222509 | 59 | 225 | 7.8 | 13.0 | 0.00 | 0.11 | 0.07 | 1 | 1014.6 |
| 20260505222409 | 59 | 236 | 7.8 | 13.0 | 0.00 | 0.11 | 0.07 | 1 | 1014.7 |
| 20260505222309 | 59 | 257 | 7.8 | 13.0 | 0.00 | 0.11 | 0.07 | 1 | 1014.7 |
| 20260505222203 | 59 | 252 | 7.0 | 12.2 | 0.00 | 0.11 | 0.07 | 1 | 1014.7 |
| 20260505222103 | 60 | 227 | 7.0 | 12.2 | 0.00 | 0.11 | 0.07 | 1 | 1014.7 |
| 20260505222003 | 60 | 221 | 7.8 | 12.2 | 0.00 | 0.11 | 0.07 | 1 | 1014.7 |
| 20260505221903 | 60 | 280 | 7.8 | 12.2 | 0.00 | 0.11 | 0.07 | 1 | 1014.7 |
| 20260505221803 | 59 | 264 | 7.8 | 12.2 | 0.00 | 0.11 | 0.07 | 1 | 1014.7 |
| 20260505221706 | 59 | 232 | 7.8 | 13.9 | 0.00 | 0.11 | 0.07 | 1 | 1014.7 |
| 20260505221702 | 59 | 250 | 7.8 | 13.9 | 0.00 | 0.11 | 0.07 | 1 | 1014.7 |
| 20260505221457 | 59 | 311 | 8.7 | 15.6 | 0.00 | 0.11 | 0.07 | 1 | 1014.7 |
| 20260505221357 | 59 | 221 | 8.7 | 15.6 | 0.00 | 0.11 | 0.07 | 1 | 1014.7 |
| 20260505221257 | 59 | 224 | 8.7 | 15.6 | 0.00 | 0.11 | 0.07 | 1 | 1014.7 |
| 20260505221151 | 59 | 221 | 8.7 | 15.6 | 0.00 | 0.11 | 0.07 | 1 | 1014.7 |
| 20260505221100 | 59 | 229 | 8.7 | 15.6 | 0.00 | 0.11 | 0.07 | 1 | 1014.7 |
| 20260505221055 | 59 | 252 | 8.7 | 15.6 | 0.00 | 0.11 | 0.07 | 1 | 1014.7 |
| 20260505220851 | 59 | 271 | 8.7 | 15.6 | 0.00 | 0.11 | 0.07 | 1 | 1014.7 |
| 20260505220754 | 59 | 239 | 8.7 | 15.6 | 0.00 | 0.11 | 0.07 | 1 | 1014.8 |
| 20260505220750 | 59 | 238 | 8.7 | 15.6 | 0.00 | 0.11 | 0.07 | 1 | 1014.7 |
| 20260505220546 | 59 | 249 | 8.7 | 15.6 | 0.00 | 0.11 | 0.07 | 1 | 1014.7 |
| 20260505220445 | 59 | 256 | 8.7 | 13.0 | 0.00 | 0.11 | 0.07 | 1 | 1014.7 |
| 20260505220345 | 59 | 218 | 7.8 | 13.0 | 0.00 | 0.11 | 0.07 | 1 | 1014.7 |
| 20260505220245 | 59 | 273 | 7.8 | 13.0 | 0.00 | 0.11 | 0.07 | 1 | 1014.8 |
| 20260505220140 | 59 | 246 | 7.8 | 12.2 | 0.00 | 0.11 | 0.07 | 1 | 1014.7 |
| 20260505220039 | 59 | 248 | 7.8 | 12.2 | 0.00 | 0.11 | 0.07 | 1 | 1014.7 |
| 20260505215939 | 59 | 244 | 7.8 | 13.0 | 0.00 | 0.11 | 0.07 | 1 | 1014.7 |
| 20260505215839 | 59 | 278 | 7.8 | 13.0 | 0.00 | 0.11 | 0.07 | 1 | 1014.7 |
| 20260505215739 | 59 | 235 | 7.8 | 13.0 | 0.00 | 0.11 | 0.07 | 1 | 1014.7 |
| 20260505215636 | 59 | 264 | 7.8 | 13.0 | 0.00 | 0.11 | 0.07 | 1 | 1014.8 |
| 20260505215536 | 59 | 253 | 7.8 | 13.0 | 0.00 | 0.11 | 0.07 | 1 | 1014.7 |
| 20260505215435 | 59 | 252 | 7.8 | 13.0 | 0.00 | 0.11 | 0.07 | 1 | 1014.8 |
| 20260505215335 | 60 | 236 | 7.8 | 13.0 | 0.00 | 0.11 | 0.07 | 1 | 1014.7 |
| 20260505215233 | 59 | 251 | 7.8 | 13.0 | 0.00 | 0.11 | 0.07 | 1 | 1014.7 |
| 20260505215128 | 59 | 283 | 8.7 | 13.0 | 0.00 | 0.11 | 0.07 | 1 | 1014.7 |
| 20260505215027 | 60 | 259 | 7.8 | 13.0 | 0.00 | 0.11 | 0.07 | 1 | 1014.8 |
| 20260505214927 | 60 | 227 | 7.8 | 13.0 | 0.00 | 0.11 | 0.07 | 1 | 1014.8 |
| 20260505214827 | 60 | 275 | 8.7 | 13.9 | 0.00 | 0.11 | 0.07 | 1 | 1014.8 |
| 20260505214727 | 59 | 271 | 8.7 | 13.9 | 0.00 | 0.11 | 0.07 | 1 | 1014.8 |
| 20260505214630 | 59 | 222 | 8.7 | 13.9 | 0.00 | 0.11 | 0.07 | 1 | 1014.8 |
| 20260505214626 | 59 | 226 | 8.7 | 13.9 | 0.00 | 0.11 | 0.07 | 1 | 1014.8 |
| 20260505214421 | 59 | 226 | 8.7 | 13.9 | 0.00 | 0.11 | 0.07 | 1 | 1014.8 |
| 20260505214321 | 59 | 240 | 7.8 | 13.9 | 0.00 | 0.11 | 0.07 | 1 | 1014.8 |
| 20260505214221 | 59 | 222 | 8.7 | 13.9 | 0.00 | 0.11 | 0.07 | 1 | 1014.9 |
| 20260505214115 | 59 | 264 | 8.7 | 13.9 | 0.00 | 0.11 | 0.07 | 1 | 1014.8 |
| 20260505214015 | 59 | 0 | 8.7 | 13.9 | 0.00 | 0.11 | 0.07 | 1 | 1014.8 |
| 20260505213915 | 59 | 242 | 8.7 | 16.5 | 0.00 | 0.11 | 0.07 | 1 | 1014.9 |
| 20260505213815 | 60 | 219 | 8.7 | 16.5 | 0.00 | 0.11 | 0.07 | 1 | 1014.8 |
| 20260505213715 | 59 | 238 | 8.7 | 16.5 | 0.00 | 0.11 | 0.07 | 1 | 1014.8 |
| 20260505213618 | 59 | 281 | 9.6 | 16.5 | 0.00 | 0.11 | 0.07 | 1 | 1014.9 |
| 20260505213613 | 59 | 279 | 9.6 | 16.5 | 0.00 | 0.11 | 0.07 | 1 | 1014.8 |
| 20260505213409 | 59 | 263 | 9.6 | 16.5 | 0.00 | 0.11 | 0.07 | 1 | 1014.9 |
| 20260505213316 | 59 | 230 | 9.6 | 16.5 | 0.00 | 0.11 | 0.07 | 1 | 1014.8 |
| 20260505213312 | 59 | 240 | 8.7 | 16.5 | 0.00 | 0.11 | 0.07 | 1 | 1014.9 |
| 20260505213003 | 60 | 221 | 8.7 | 14.8 | 0.00 | 0.11 | 0.07 | 1 | 1014.9 |
| 20260505212903 | 60 | 236 | 8.7 | 14.8 | 0.00 | 0.11 | 0.07 | 1 | 1014.9 |
| 20260505212803 | 60 | 233 | 8.7 | 14.8 | 0.00 | 0.11 | 0.07 | 1 | 1014.9 |
| 20260505212703 | 60 | 245 | 8.7 | 14.8 | 0.00 | 0.11 | 0.07 | 1 | 1014.9 |
| 20260505212557 | 60 | 282 | 8.7 | 14.8 | 0.00 | 0.11 | 0.07 | 1 | 1014.9 |
| 20260505212457 | 60 | 241 | 7.8 | 14.8 | 0.00 | 0.11 | 0.07 | 1 | 1014.9 |
| 20260505212357 | 60 | 257 | 8.7 | 14.8 | 0.00 | 0.11 | 0.07 | 1 | 1014.9 |
| 20260505212257 | 60 | 246 | 8.7 | 14.8 | 0.00 | 0.11 | 0.07 | 1 | 1014.9 |
| 20260505212157 | 59 | 240 | 8.7 | 14.8 | 0.00 | 0.11 | 0.07 | 1 | 1014.9 |
| 20260505212051 | 59 | 277 | 8.7 | 14.8 | 0.00 | 0.11 | 0.07 | 1 | 1014.9 |
| 20260505211959 | 60 | 215 | 8.7 | 14.8 | 0.00 | 0.11 | 0.07 | 1 | 1014.9 |
| 20260505211955 | 60 | 259 | 8.7 | 14.8 | 0.00 | 0.11 | 0.07 | 1 | 1014.9 |
| 20260505211751 | 60 | 290 | 8.7 | 13.9 | 0.00 | 0.11 | 0.07 | 1 | 1014.9 |
| 20260505211654 | 60 | 284 | 8.7 | 13.9 | 0.00 | 0.11 | 0.07 | 1 | 1014.9 |
| 20260505211650 | 60 | 261 | 8.7 | 13.9 | 0.00 | 0.11 | 0.07 | 1 | 1014.9 |
| 20260505211446 | 60 | 233 | 8.7 | 13.9 | 0.00 | 0.11 | 0.07 | 1 | 1015.0 |
| 20260505211346 | 60 | 242 | 8.7 | 13.9 | 0.00 | 0.11 | 0.07 | 1 | 1014.9 |
| 20260505211245 | 60 | 295 | 8.7 | 13.9 | 0.00 | 0.11 | 0.07 | 1 | 1014.9 |
| 20260505211145 | 60 | 275 | 8.7 | 13.9 | 0.00 | 0.11 | 0.07 | 1 | 1014.9 |
| 20260505211048 | 60 | 245 | 8.7 | 13.9 | 0.00 | 0.11 | 0.07 | 1 | 1014.9 |
| 20260505211044 | 60 | 261 | 8.7 | 13.9 | 0.00 | 0.11 | 0.07 | 1 | 1015.0 |
| 20260505210839 | 60 | 265 | 8.7 | 13.9 | 0.00 | 0.11 | 0.07 | 1 | 1014.9 |
| 20260505210740 | 60 | 155 | 8.7 | 13.9 | 0.00 | 0.11 | 0.07 | 1 | 1015.0 |
| 20260505210642 | 60 | 275 | 8.7 | 13.9 | 0.00 | 0.11 | 0.07 | 1 | 1014.9 |
| 20260505210637 | 60 | 265 | 8.7 | 13.9 | 0.00 | 0.11 | 0.07 | 1 | 1014.9 |
| 20260505210433 | 60 | 294 | 8.7 | 14.8 | 0.00 | 0.11 | 0.07 | 1 | 1014.9 |
| 20260505210333 | 60 | 290 | 8.7 | 14.8 | 0.00 | 0.11 | 0.07 | 1 | 1015.0 |
| 20260505210233 | 60 | 254 | 8.7 | 14.8 | 0.00 | 0.11 | 0.07 | 1 | 1014.9 |
| 20260505210133 | 60 | 271 | 7.8 | 14.8 | 0.00 | 0.11 | 0.07 | 1 | 1014.9 |
| 20260505210027 | 60 | 242 | 8.7 | 14.8 | 0.00 | 0.11 | 0.07 | 1 | 1015.0 |
| 20260505205927 | 60 | 0 | 8.7 | 14.8 | 0.00 | 0.11 | 0.07 | 4 | 1014.9 |
| 20260505205827 | 60 | 313 | 7.8 | 14.8 | 0.00 | 0.11 | 0.07 | 2 | 1014.9 |
| 20260505205727 | 60 | 223 | 7.8 | 14.8 | 0.00 | 0.11 | 0.07 | 2 | 1014.9 |
| 20260505205627 | 60 | 243 | 7.8 | 14.8 | 0.00 | 0.11 | 0.07 | 8 | 1014.9 |
| 20260505205524 | 61 | 245 | 7.8 | 14.8 | 0.00 | 0.11 | 0.07 | 7 | 1014.9 |
| 20260505205423 | 61 | 248 | 7.8 | 13.9 | 0.00 | 0.11 | 0.07 | 5 | 1014.9 |
| 20260505205323 | 61 | 279 | 7.8 | 13.9 | 0.00 | 0.11 | 0.07 | 5 | 1014.8 |
| 20260505205229 | 60 | 277 | 7.8 | 13.9 | 0.00 | 0.11 | 0.07 | 10 | 1014.9 |
| 20260505205225 | 60 | 228 | 7.8 | 13.9 | 0.00 | 0.11 | 0.07 | 7 | 1014.9 |
| 20260505205015 | 60 | 220 | 7.8 | 13.0 | 0.00 | 0.11 | 0.07 | 14 | 1014.9 |
| 20260505204915 | 61 | 250 | 7.8 | 13.0 | 0.00 | 0.11 | 0.07 | 10 | 1014.9 |
| 20260505204823 | 60 | 263 | 7.8 | 13.0 | 0.00 | 0.11 | 0.07 | 11 | 1015.0 |
| 20260505204819 | 61 | 207 | 7.8 | 13.0 | 0.00 | 0.11 | 0.07 | 9 | 1014.9 |
| 20260505204615 | 60 | 341 | 8.7 | 13.0 | 0.00 | 0.11 | 0.07 | 14 | 1014.9 |
| 20260505204509 | 61 | 282 | 8.7 | 13.0 | 0.00 | 0.11 | 0.07 | 11 | 1014.9 |
| 20260505204409 | 61 | 281 | 7.8 | 14.8 | 0.00 | 0.11 | 0.07 | 3 | 1014.9 |
| 20260505204309 | 60 | 257 | 7.8 | 14.8 | 0.00 | 0.11 | 0.07 | 1 | 1014.8 |
| 20260505204210 | 60 | 275 | 7.8 | 14.8 | 0.00 | 0.11 | 0.07 | 2 | 1014.8 |
| 20260505204108 | 60 | 228 | 8.7 | 14.8 | 0.00 | 0.11 | 0.07 | 2 | 1014.8 |
| 20260505204003 | 60 | 256 | 8.7 | 14.8 | 0.00 | 0.11 | 0.07 | 3 | 1014.7 |
| 20260505203903 | 60 | 225 | 8.7 | 14.8 | 0.00 | 0.11 | 0.07 | 1 | 1014.8 |
| 20260505203804 | 60 | 206 | 8.7 | 14.8 | 0.00 | 0.11 | 0.07 | 7 | 1014.7 |
| 20260505203712 | 60 | 265 | 8.7 | 14.8 | 0.00 | 0.11 | 0.07 | 4 | 1014.8 |
| 20260505203708 | 60 | 257 | 8.7 | 14.8 | 0.00 | 0.11 | 0.07 | 8 | 1014.8 |
| 20260505203457 | 60 | 240 | 8.7 | 14.8 | 0.00 | 0.11 | 0.07 | 1 | 1014.8 |
| 20260505203358 | 60 | 227 | 7.8 | 14.8 | 0.00 | 0.11 | 0.07 | 1 | 1014.9 |
| 20260505203257 | 60 | 271 | 7.8 | 14.8 | 0.00 | 0.11 | 0.07 | 1 | 1014.9 |
| 20260505203157 | 60 | 266 | 7.8 | 14.8 | 0.00 | 0.11 | 0.07 | 1 | 1014.8 |
| 20260505203100 | 60 | 266 | 7.8 | 14.8 | 0.00 | 0.11 | 0.07 | 1 | 1014.8 |
| 20260505203056 | 60 | 254 | 7.8 | 14.8 | 0.00 | 0.11 | 0.07 | 1 | 1014.8 |
| 20260505202852 | 60 | 265 | 8.7 | 14.8 | 0.00 | 0.11 | 0.07 | 8 | 1014.8 |
| 20260505202751 | 60 | 225 | 7.8 | 14.8 | 0.01 | 0.11 | 0.07 | 8 | 1014.9 |
| 20260505202651 | 60 | 276 | 7.8 | 14.8 | 0.01 | 0.11 | 0.07 | 7 | 1014.8 |
| 20260505202551 | 60 | 284 | 7.8 | 13.9 | 0.01 | 0.11 | 0.07 | 2 | 1014.8 |
| 20260505202445 | 60 | 244 | 7.8 | 13.9 | 0.01 | 0.11 | 0.07 | 3 | 1014.9 |
| 20260505202345 | 60 | 327 | 8.7 | 13.9 | 0.01 | 0.11 | 0.07 | 5 | 1014.8 |
| 20260505202245 | 60 | 271 | 8.7 | 13.9 | 0.01 | 0.11 | 0.07 | 6 | 1014.8 |
| 20260505202145 | 60 | 248 | 8.7 | 13.9 | 0.01 | 0.11 | 0.07 | 6 | 1014.8 |
| 20260505202045 | 60 | 239 | 8.7 | 13.9 | 0.01 | 0.11 | 0.07 | 3 | 1014.8 |
| 20260505201939 | 60 | 295 | 8.7 | 13.9 | 0.01 | 0.11 | 0.07 | 5 | 1014.8 |
| 20260505201847 | 60 | 235 | 9.6 | 13.9 | 0.01 | 0.11 | 0.07 | 1 | 1014.8 |
| 20260505201844 | 60 | 280 | 8.7 | 13.9 | 0.01 | 0.11 | 0.07 | 1 | 1014.8 |
| 20260505201639 | 60 | 219 | 8.7 | 13.9 | 0.01 | 0.11 | 0.07 | 1 | 1014.8 |
| 20260505201538 | 59 | 192 | 9.6 | 13.9 | 0.01 | 0.11 | 0.07 | 1 | 1014.9 |
| 20260505201433 | 59 | 276 | 9.6 | 13.9 | 0.01 | 0.11 | 0.07 | 1 | 1014.8 |
| 20260505201333 | 59 | 230 | 9.6 | 13.9 | 0.01 | 0.11 | 0.07 | 1 | 1014.9 |
| 20260505201233 | 59 | 291 | 9.6 | 13.9 | 0.01 | 0.11 | 0.07 | 1 | 1014.9 |
| 20260505201133 | 59 | 271 | 9.6 | 13.9 | 0.01 | 0.11 | 0.07 | 1 | 1014.8 |
| 20260505201033 | 59 | 238 | 9.6 | 13.9 | 0.01 | 0.11 | 0.07 | 1 | 1014.9 |
| 20260505200927 | 59 | 294 | 9.6 | 14.8 | 0.01 | 0.11 | 0.07 | 1 | 1014.9 |
| 20260505200826 | 59 | 265 | 9.6 | 14.8 | 0.01 | 0.11 | 0.07 | 1 | 1014.9 |
| 20260505200726 | 59 | 263 | 9.6 | 14.8 | 0.01 | 0.11 | 0.07 | 1 | 1014.8 |
| 20260505200628 | 59 | 236 | 8.7 | 14.8 | 0.01 | 0.11 | 0.07 | 1 | 1014.9 |
| 20260505200527 | 59 | 232 | 8.7 | 14.8 | 0.01 | 0.11 | 0.07 | 1 | 1014.9 |
| 20260505200421 | 59 | 264 | 8.7 | 14.8 | 0.01 | 0.11 | 0.07 | 1 | 1014.8 |
| 20260505200320 | 59 | 261 | 8.7 | 14.8 | 0.01 | 0.11 | 0.07 | 1 | 1014.9 |
| 20260505200230 | 59 | 227 | 7.8 | 14.8 | 0.01 | 0.11 | 0.07 | 1 | 1014.9 |
| 20260505200226 | 59 | 252 | 7.8 | 14.8 | 0.01 | 0.11 | 0.07 | 1 | 1014.8 |
| 20260505200021 | 59 | 263 | 7.8 | 14.8 | 0.01 | 0.11 | 0.07 | 1 | 1014.9 |
| 20260505195915 | 60 | 226 | 7.8 | 12.2 | 0.01 | 0.11 | 0.07 | 1 | 1014.9 |
| 20260505195815 | 60 | 234 | 7.8 | 13.0 | 0.01 | 0.11 | 0.07 | 1 | 1014.9 |
| 20260505195714 | 59 | 265 | 7.8 | 13.0 | 0.01 | 0.11 | 0.07 | 1 | 1014.9 |
| 20260505195615 | 59 | 286 | 7.8 | 13.0 | 0.01 | 0.11 | 0.07 | 1 | 1014.9 |
| 20260505195515 | 59 | 288 | 7.8 | 13.0 | 0.01 | 0.11 | 0.07 | 1 | 1014.9 |
| 20260505195415 | 59 | 281 | 7.8 | 13.0 | 0.01 | 0.11 | 0.07 | 1 | 1015.0 |
| 20260505195315 | 59 | 272 | 7.8 | 13.0 | 0.01 | 0.11 | 0.07 | 1 | 1015.0 |
| 20260505195215 | 59 | 257 | 7.8 | 13.0 | 0.01 | 0.11 | 0.07 | 1 | 1015.0 |
| 20260505195123 | 59 | 265 | 7.8 | 13.0 | 0.01 | 0.11 | 0.07 | 1 | 1015.0 |
| 20260505195119 | 59 | 288 | 7.8 | 13.0 | 0.01 | 0.11 | 0.07 | 1 | 1015.0 |
| 20260505194915 | 60 | 258 | 7.0 | 13.0 | 0.01 | 0.11 | 0.07 | 1 | 1015.0 |
| 20260505194828 | 60 | 269 | 7.0 | 12.2 | 0.01 | 0.11 | 0.07 | 1 | 1015.0 |
| 20260505194719 | 60 | 247 | 7.0 | 12.2 | 0.01 | 0.11 | 0.07 | 1 | 1015.0 |
| 20260505194515 | 60 | 241 | 7.0 | 12.2 | 0.01 | 0.11 | 0.07 | 1 | 1015.0 |
| 20260505194415 | 60 | 333 | 7.0 | 12.2 | 0.01 | 0.11 | 0.07 | 1 | 1015.0 |
| 20260505194315 | 60 | 234 | 7.0 | 12.2 | 0.01 | 0.11 | 0.07 | 1 | 1015.0 |
| 20260505194209 | 60 | 238 | 7.0 | 12.2 | 0.01 | 0.11 | 0.07 | 1 | 1015.0 |
| 20260505194108 | 59 | 213 | 7.0 | 12.2 | 0.01 | 0.11 | 0.07 | 1 | 1015.0 |
| 20260505194008 | 59 | 191 | 7.8 | 12.2 | 0.01 | 0.11 | 0.07 | 1 | 1015.0 |
| 20260505193909 | 59 | 0 | 7.8 | 12.2 | 0.01 | 0.11 | 0.07 | 1 | 1015.1 |
| 20260505193808 | 59 | 264 | 7.8 | 13.9 | 0.01 | 0.11 | 0.07 | 1 | 1015.0 |
| 20260505193703 | 59 | 226 | 7.8 | 13.9 | 0.01 | 0.11 | 0.07 | 1 | 1015.0 |
| 20260505193603 | 59 | 239 | 7.8 | 13.9 | 0.01 | 0.11 | 0.07 | 1 | 1015.0 |
| 20260505193502 | 59 | 300 | 7.8 | 13.9 | 0.01 | 0.11 | 0.07 | 1 | 1015.1 |
| 20260505193402 | 59 | 271 | 7.8 | 13.9 | 0.01 | 0.11 | 0.07 | 1 | 1015.0 |
| 20260505193302 | 59 | 286 | 7.8 | 13.9 | 0.01 | 0.11 | 0.07 | 1 | 1015.0 |
| 20260505193159 | 59 | 246 | 7.8 | 13.9 | 0.01 | 0.11 | 0.07 | 1 | 1015.0 |
| 20260505193059 | 59 | 261 | 7.0 | 13.9 | 0.01 | 0.11 | 0.07 | 1 | 1015.0 |
| 20260505192959 | 59 | 242 | 7.8 | 13.9 | 0.01 | 0.11 | 0.07 | 1 | 1015.0 |
| 20260505192859 | 59 | 242 | 7.8 | 13.9 | 0.01 | 0.11 | 0.07 | 1 | 1015.1 |
| 20260505192801 | 59 | 265 | 7.0 | 13.0 | 0.00 | 0.10 | 0.06 | 1 | 1015.1 |
| 20260505192757 | 59 | 250 | 7.0 | 13.0 | 0.00 | 0.10 | 0.07 | 1 | 1015.1 |
| 20260505192553 | 59 | 221 | 7.0 | 13.0 | 0.00 | 0.10 | 0.06 | 1 | 1015.0 |
| 20260505192452 | 59 | 196 | 7.0 | 13.0 | 0.00 | 0.10 | 0.06 | 1 | 1015.0 |
| 20260505192354 | 59 | 306 | 7.0 | 13.0 | 0.00 | 0.10 | 0.06 | 1 | 1015.0 |
| 20260505192253 | 59 | 283 | 7.0 | 13.0 | 0.00 | 0.10 | 0.06 | 1 | 1015.1 |
| 20260505192153 | 59 | 250 | 7.0 | 13.0 | 0.00 | 0.10 | 0.06 | 1 | 1015.0 |
| 20260505192053 | 59 | 306 | 7.8 | 13.0 | 0.00 | 0.10 | 0.06 | 1 | 1015.0 |
| 20260505191952 | 59 | 300 | 7.0 | 13.0 | 0.00 | 0.10 | 0.06 | 1 | 1015.0 |
| 20260505191853 | 59 | 262 | 7.0 | 11.3 | 0.00 | 0.10 | 0.06 | 1 | 1015.0 |
| 20260505191753 | 59 | 294 | 7.0 | 11.3 | 0.00 | 0.10 | 0.06 | 1 | 1015.0 |
| 20260505191653 | 59 | 277 | 7.0 | 11.3 | 0.00 | 0.10 | 0.06 | 1 | 1015.0 |
| 20260505191553 | 59 | 292 | 6.1 | 10.4 | 0.00 | 0.10 | 0.06 | 1 | 1015.0 |
| 20260505191510 | 59 | 275 | 7.0 | 12.2 | 0.00 | 0.10 | 0.06 | 1 | 1015.0 |
| 20260505191505 | 59 | 263 | 7.0 | 13.0 | 0.00 | 0.10 | 0.06 | 1 | 1015.1 |
| 20260505191501 | 59 | 276 | 7.0 | 12.2 | 0.00 | 0.10 | 0.06 | 1 | 1015.0 |
| 20260505191153 | 59 | 236 | 7.0 | 13.0 | 0.00 | 0.10 | 0.06 | 1 | 1015.0 |
| 20260505191053 | 59 | 257 | 7.0 | 13.0 | 0.00 | 0.10 | 0.06 | 1 | 1015.0 |
| 20260505190953 | 59 | 231 | 7.0 | 13.0 | 0.00 | 0.10 | 0.06 | 1 | 1014.9 |
| 20260505190853 | 58 | 308 | 7.0 | 13.0 | 0.00 | 0.10 | 0.06 | 1 | 1014.9 |
| 20260505190753 | 58 | 238 | 7.0 | 13.0 | 0.00 | 0.10 | 0.06 | 1 | 1014.9 |
| 20260505190653 | 58 | 274 | 7.0 | 13.0 | 0.00 | 0.10 | 0.06 | 1 | 1014.9 |
| 20260505190553 | 58 | 266 | 7.0 | 13.0 | 0.00 | 0.10 | 0.06 | 1 | 1014.9 |
| 20260505190453 | 58 | 249 | 7.0 | 13.0 | 0.00 | 0.10 | 0.06 | 1 | 1014.9 |
| 20260505190357 | 58 | 246 | 7.0 | 13.0 | 0.00 | 0.10 | 0.06 | 1 | 1014.8 |
| 20260505190246 | 58 | 265 | 7.0 | 12.2 | 0.00 | 0.10 | 0.06 | 1 | 1014.8 |
| 20260505190146 | 58 | 278 | 7.0 | 12.2 | 0.00 | 0.10 | 0.06 | 1 | 1014.8 |
| 20260505190056 | 58 | 273 | 7.0 | 11.3 | 0.00 | 0.10 | 0.06 | 1 | 1014.8 |
| 20260505190052 | 58 | 237 | 7.0 | 10.4 | 0.00 | 0.10 | 0.06 | 1 | 1014.8 |
| 20260505185846 | 58 | 300 | 7.0 | 12.2 | 0.00 | 0.10 | 0.06 | 1 | 1014.8 |
| 20260505185745 | 58 | 260 | 7.8 | 12.2 | 0.00 | 0.10 | 0.06 | 1 | 1014.8 |
| 20260505185645 | 58 | 311 | 7.8 | 12.2 | 0.00 | 0.10 | 0.06 | 1 | 1014.8 |
| 20260505185545 | 58 | 242 | 7.8 | 12.2 | 0.00 | 0.10 | 0.06 | 1 | 1014.8 |
| 20260505185443 | 58 | 281 | 7.8 | 12.2 | 0.00 | 0.10 | 0.06 | 1 | 1014.8 |
| 20260505185351 | 58 | 283 | 7.8 | 12.2 | 0.00 | 0.10 | 0.06 | 1 | 1014.8 |
| 20260505185347 | 58 | 267 | 7.8 | 12.2 | 0.00 | 0.10 | 0.06 | 1 | 1014.8 |
| 20260505185143 | 58 | 277 | 7.8 | 12.2 | 0.00 | 0.10 | 0.06 | 1 | 1014.8 |
| 20260505185043 | 58 | 267 | 7.8 | 12.2 | 0.00 | 0.10 | 0.06 | 1 | 1014.8 |
| 20260505184941 | 58 | 254 | 7.8 | 12.2 | 0.00 | 0.10 | 0.06 | 1 | 1014.8 |
| 20260505184849 | 58 | 221 | 7.8 | 12.2 | 0.00 | 0.10 | 0.06 | 1 | 1014.7 |
| 20260505184845 | 58 | 231 | 7.8 | 12.2 | 0.00 | 0.10 | 0.06 | 1 | 1014.8 |
| 20260505184641 | 58 | 254 | 7.0 | 12.2 | 0.00 | 0.10 | 0.06 | 1 | 1014.8 |
| 20260505184541 | 58 | 272 | 7.0 | 12.2 | 0.00 | 0.10 | 0.06 | 1 | 1014.7 |
| 20260505184441 | 58 | 279 | 7.0 | 12.2 | 0.00 | 0.10 | 0.06 | 1 | 1014.8 |
| 20260505184341 | 58 | 269 | 7.0 | 12.2 | 0.00 | 0.10 | 0.06 | 1 | 1014.7 |
| 20260505184241 | 58 | 227 | 7.0 | 12.2 | 0.00 | 0.10 | 0.06 | 1 | 1014.8 |
| 20260505184156 | 58 | 283 | 7.0 | 11.3 | 0.00 | 0.10 | 0.06 | 1 | 1014.8 |
| 20260505184152 | 58 | 253 | 7.0 | 12.2 | 0.00 | 0.10 | 0.06 | 1 | 1014.8 |
| 20260505184147 | 58 | 292 | 7.0 | 12.2 | 0.00 | 0.10 | 0.06 | 1 | 1014.8 |
| 20260505183839 | 58 | 259 | 7.8 | 12.2 | 0.00 | 0.10 | 0.06 | 1 | 1014.9 |
| 20260505183739 | 58 | 265 | 7.8 | 12.2 | 0.00 | 0.10 | 0.06 | 1 | 1014.9 |
| 20260505183639 | 58 | 228 | 7.8 | 12.2 | 0.00 | 0.10 | 0.06 | 1 | 1014.9 |
| 20260505183538 | 58 | 253 | 7.8 | 12.2 | 0.00 | 0.10 | 0.06 | 1 | 1014.9 |
| 20260505183439 | 58 | 243 | 7.8 | 12.2 | 0.00 | 0.10 | 0.06 | 1 | 1014.9 |
| 20260505183339 | 57 | 238 | 7.8 | 12.2 | 0.00 | 0.10 | 0.06 | 1 | 1014.9 |
| 20260505183239 | 58 | 279 | 7.8 | 12.2 | 0.00 | 0.10 | 0.06 | 1 | 1014.9 |
| 20260505183139 | 57 | 283 | 7.8 | 12.2 | 0.00 | 0.10 | 0.06 | 1 | 1014.9 |
| 20260505183039 | 58 | 281 | 7.0 | 12.2 | 0.00 | 0.10 | 0.06 | 1 | 1014.9 |
| 20260505182939 | 58 | 278 | 7.0 | 12.2 | 0.00 | 0.10 | 0.06 | 1 | 1014.9 |
| 20260505182839 | 58 | 252 | 7.0 | 12.2 | 0.00 | 0.10 | 0.06 | 1 | 1015.0 |
| 20260505182743 | 58 | 268 | 7.0 | 12.2 | 0.00 | 0.10 | 0.06 | 1 | 1015.0 |
| 20260505182739 | 58 | 274 | 7.0 | 12.2 | 0.00 | 0.10 | 0.06 | 1 | 1015.0 |
| 20260505182534 | 58 | 286 | 7.0 | 13.0 | 0.00 | 0.10 | 0.06 | 1 | 1015.0 |
| 20260505182435 | 58 | 254 | 7.0 | 13.0 | 0.00 | 0.10 | 0.06 | 1 | 1015.0 |
| 20260505182335 | 58 | 282 | 7.0 | 13.0 | 0.00 | 0.10 | 0.06 | 1 | 1015.0 |
| 20260505182235 | 58 | 275 | 7.0 | 13.0 | 0.00 | 0.10 | 0.06 | 1 | 1015.0 |
| 20260505182135 | 58 | 275 | 7.0 | 13.0 | 0.00 | 0.10 | 0.06 | 1 | 1015.0 |
| 20260505182034 | 58 | 309 | 7.0 | 13.0 | 0.00 | 0.10 | 0.06 | 1 | 1014.9 |
| 20260505181935 | 58 | 265 | 7.0 | 13.0 | 0.00 | 0.10 | 0.06 | 1 | 1014.9 |
| 20260505181835 | 58 | 290 | 7.8 | 13.9 | 0.00 | 0.10 | 0.06 | 1 | 1014.9 |
| 20260505181735 | 58 | 269 | 7.8 | 13.9 | 0.00 | 0.10 | 0.06 | 1 | 1014.9 |
| 20260505181635 | 58 | 257 | 7.8 | 13.9 | 0.00 | 0.10 | 0.06 | 1 | 1014.9 |
| 20260505181534 | 58 | 279 | 7.8 | 13.9 | 0.00 | 0.10 | 0.06 | 1 | 1014.9 |
| 20260505181435 | 58 | 264 | 7.8 | 13.9 | 0.00 | 0.10 | 0.06 | 1 | 1014.9 |
| 20260505181335 | 58 | 281 | 7.8 | 13.9 | 0.00 | 0.10 | 0.06 | 1 | 1014.8 |
| 20260505181235 | 58 | 281 | 7.8 | 13.9 | 0.00 | 0.10 | 0.06 | 1 | 1014.9 |
| 20260505181135 | 58 | 280 | 7.8 | 13.9 | 0.00 | 0.10 | 0.06 | 1 | 1014.8 |
| 20260505181034 | 58 | 259 | 7.8 | 13.9 | 0.00 | 0.10 | 0.06 | 1 | 1014.8 |
| 20260505180934 | 58 | 287 | 7.8 | 13.9 | 0.00 | 0.10 | 0.06 | 1 | 1014.8 |
| 20260505180835 | 58 | 288 | 7.8 | 13.9 | 0.00 | 0.10 | 0.06 | 1 | 1014.8 |
| 20260505180732 | 58 | 265 | 7.8 | 13.9 | 0.00 | 0.10 | 0.06 | 1 | 1014.7 |
| 20260505180631 | 58 | 307 | 7.8 | 13.9 | 0.00 | 0.10 | 0.06 | 1 | 1014.7 |
| 20260505180531 | 58 | 271 | 7.0 | 13.0 | 0.00 | 0.10 | 0.06 | 1 | 1014.7 |
| 20260505180431 | 58 | 292 | 7.0 | 13.0 | 0.00 | 0.10 | 0.06 | 1 | 1014.6 |
| 20260505180331 | 58 | 302 | 7.0 | 13.0 | 0.00 | 0.10 | 0.06 | 1 | 1014.6 |
| 20260505180230 | 57 | 292 | 7.8 | 13.0 | 0.00 | 0.10 | 0.06 | 1 | 1014.6 |
| 20260505180131 | 57 | 299 | 7.8 | 13.0 | 0.00 | 0.10 | 0.06 | 1 | 1014.6 |
| 20260505180031 | 57 | 10 | 7.8 | 13.0 | 0.00 | 0.10 | 0.06 | 1 | 1014.6 |
| 20260505175931 | 57 | 277 | 7.8 | 13.0 | 0.00 | 0.10 | 0.06 | 1 | 1014.6 |
| 20260505175831 | 57 | 275 | 7.8 | 13.0 | 0.00 | 0.10 | 0.06 | 1 | 1014.5 |
| 20260505175732 | 57 | 288 | 7.8 | 13.0 | 0.00 | 0.10 | 0.06 | 1 | 1014.6 |
| 20260505175631 | 57 | 238 | 7.8 | 13.0 | 0.00 | 0.10 | 0.06 | 1 | 1014.6 |
| 20260505175531 | 57 | 246 | 7.8 | 12.2 | 0.00 | 0.10 | 0.06 | 1 | 1014.5 |
| 20260505175431 | 57 | 288 | 7.8 | 12.2 | 0.00 | 0.10 | 0.06 | 1 | 1014.4 |
| 20260505175331 | 57 | 286 | 7.8 | 12.2 | 0.00 | 0.10 | 0.06 | 1 | 1014.5 |
| 20260505175230 | 57 | 298 | 7.0 | 12.2 | 0.00 | 0.10 | 0.06 | 1 | 1014.4 |
| 20260505175130 | 57 | 284 | 7.0 | 12.2 | 0.00 | 0.10 | 0.06 | 1 | 1014.4 |
| 20260505175031 | 57 | 283 | 7.0 | 12.2 | 0.00 | 0.10 | 0.06 | 1 | 1014.4 |
| 20260505174931 | 57 | 296 | 7.0 | 12.2 | 0.00 | 0.10 | 0.06 | 1 | 1014.4 |
| 20260505174824 | 57 | 307 | 7.0 | 12.2 | 0.00 | 0.10 | 0.06 | 1 | 1014.5 |
| 20260505174725 | 57 | 279 | 7.0 | 12.2 | 0.00 | 0.10 | 0.06 | 1 | 1014.5 |
| 20260505174625 | 57 | 267 | 7.0 | 12.2 | 0.00 | 0.10 | 0.06 | 1 | 1014.5 |
| 20260505174525 | 57 | 279 | 6.1 | 11.3 | 0.00 | 0.10 | 0.06 | 1 | 1014.5 |
| 20260505174425 | 57 | 257 | 6.1 | 11.3 | 0.00 | 0.10 | 0.06 | 1 | 1014.5 |
| 20260505174324 | 57 | 278 | 7.0 | 11.3 | 0.00 | 0.10 | 0.06 | 1 | 1014.5 |
| 20260505174224 | 57 | 275 | 7.0 | 12.2 | 0.00 | 0.10 | 0.06 | 1 | 1014.5 |
| 20260505174125 | 57 | 284 | 7.0 | 12.2 | 0.00 | 0.10 | 0.06 | 1 | 1014.5 |
| 20260505174025 | 56 | 278 | 7.0 | 12.2 | 0.00 | 0.10 | 0.06 | 1 | 1014.5 |
| 20260505173924 | 56 | 300 | 7.0 | 12.2 | 0.00 | 0.10 | 0.06 | 1 | 1014.4 |
| 20260505173825 | 56 | 280 | 7.0 | 12.2 | 0.00 | 0.10 | 0.06 | 1 | 1014.5 |
| 20260505173724 | 56 | 284 | 7.0 | 12.2 | 0.00 | 0.10 | 0.06 | 1 | 1014.5 |
| 20260505173619 | 56 | 274 | 7.0 | 12.2 | 0.00 | 0.10 | 0.06 | 1 | 1014.6 |
| 20260505173519 | 56 | 265 | 7.0 | 12.2 | 0.00 | 0.10 | 0.06 | 1 | 1014.6 |
| 20260505173419 | 56 | 274 | 7.0 | 12.2 | 0.00 | 0.10 | 0.06 | 1 | 1014.6 |
| 20260505173318 | 56 | 278 | 7.0 | 12.2 | 0.00 | 0.10 | 0.06 | 1 | 1014.6 |
| 20260505173217 | 56 | 290 | 7.0 | 12.2 | 0.00 | 0.10 | 0.06 | 1 | 1014.5 |
| 20260505173113 | 56 | 313 | 7.0 | 13.0 | 0.00 | 0.10 | 0.06 | 1 | 1014.5 |
| 20260505173010 | 56 | 247 | 7.8 | 13.0 | 0.00 | 0.10 | 0.06 | 1 | 1014.5 |
| 20260505172910 | 56 | 294 | 7.8 | 13.0 | 0.00 | 0.10 | 0.06 | 1 | 1014.5 |
| 20260505172810 | 56 | 271 | 7.8 | 13.0 | 0.00 | 0.10 | 0.06 | 1 | 1014.5 |
| 20260505172710 | 56 | 275 | 7.0 | 13.0 | 0.00 | 0.10 | 0.06 | 1 | 1014.5 |
| 20260505172607 | 56 | 259 | 7.0 | 13.0 | 0.00 | 0.10 | 0.06 | 1 | 1014.5 |
| 20260505172507 | 56 | 245 | 7.8 | 13.0 | 0.00 | 0.10 | 0.06 | 1 | 1014.6 |
| 20260505172406 | 56 | 279 | 7.8 | 13.0 | 0.00 | 0.10 | 0.06 | 1 | 1014.5 |
| 20260505172306 | 56 | 282 | 7.0 | 13.0 | 0.00 | 0.10 | 0.06 | 1 | 1014.6 |
| 20260505172207 | 56 | 283 | 7.0 | 13.0 | 0.00 | 0.10 | 0.06 | 1 | 1014.6 |
| 20260505172122 | 56 | 248 | 7.0 | 12.2 | 0.00 | 0.10 | 0.06 | 1 | 1014.5 |
| 20260505172118 | 56 | 300 | 7.0 | 12.2 | 0.00 | 0.10 | 0.06 | 1 | 1014.5 |
| 20260505172113 | 56 | 251 | 7.0 | 12.2 | 0.00 | 0.10 | 0.06 | 1 | 1014.6 |
| 20260505171805 | 56 | 285 | 7.0 | 12.2 | 0.00 | 0.10 | 0.06 | 1 | 1014.5 |
| 20260505171705 | 56 | 273 | 7.0 | 12.2 | 0.00 | 0.10 | 0.06 | 1 | 1014.4 |
| 20260505171605 | 56 | 300 | 7.0 | 12.2 | 0.00 | 0.10 | 0.06 | 1 | 1014.4 |
| 20260505171504 | 56 | 265 | 7.0 | 12.2 | 0.00 | 0.10 | 0.06 | 1 | 1014.4 |
| 20260505171405 | 56 | 296 | 7.0 | 12.2 | 0.00 | 0.10 | 0.06 | 1 | 1014.4 |
| 20260505171305 | 56 | 279 | 7.0 | 12.2 | 0.00 | 0.10 | 0.06 | 1 | 1014.4 |
| 20260505171205 | 56 | 245 | 6.1 | 12.2 | 0.00 | 0.10 | 0.06 | 1 | 1014.5 |
| 20260505171105 | 56 | 273 | 6.1 | 11.3 | 0.00 | 0.10 | 0.06 | 1 | 1014.4 |
| 20260505171004 | 56 | 273 | 6.1 | 11.3 | 0.00 | 0.10 | 0.06 | 1 | 1014.4 |
| 20260505170907 | 56 | 277 | 6.1 | 11.3 | 0.00 | 0.10 | 0.06 | 1 | 1014.4 |
| 20260505170902 | 56 | 258 | 6.1 | 11.3 | 0.00 | 0.10 | 0.06 | 1 | 1014.4 |
| 20260505170658 | 56 | 299 | 6.1 | 11.3 | 0.00 | 0.10 | 0.06 | 1 | 1014.4 |
| 20260505170558 | 56 | 288 | 5.2 | 11.3 | 0.00 | 0.10 | 0.06 | 1 | 1014.4 |
| 20260505170458 | 56 | 277 | 5.2 | 11.3 | 0.00 | 0.10 | 0.06 | 1 | 1014.4 |
| 20260505170353 | 56 | 282 | 5.2 | 12.2 | 0.00 | 0.10 | 0.06 | 1 | 1014.3 |
| 20260505170253 | 55 | 277 | 5.2 | 12.2 | 0.00 | 0.10 | 0.06 | 1 | 1014.4 |
| 20260505170152 | 55 | 284 | 5.2 | 12.2 | 0.00 | 0.10 | 0.06 | 1 | 1014.3 |
| 20260505165952 | 55 | 282 | 5.2 | 12.2 | 0.00 | 0.10 | 0.06 | 1 | 1014.4 |
| 20260505165846 | 55 | 280 | 6.1 | 12.2 | 0.00 | 0.10 | 0.06 | 1 | 1014.4 |
| 20260505165746 | 55 | 293 | 6.1 | 12.2 | 0.00 | 0.10 | 0.06 | 1 | 1014.4 |
| 20260505165646 | 55 | 268 | 6.1 | 12.2 | 0.00 | 0.10 | 0.06 | 1 | 1014.4 |
| 20260505165546 | 55 | 281 | 6.1 | 12.2 | 0.00 | 0.10 | 0.06 | 1 | 1014.4 |
| 20260505165446 | 55 | 284 | 6.1 | 12.2 | 0.00 | 0.10 | 0.06 | 1 | 1014.4 |
| 20260505165340 | 55 | 304 | 6.1 | 12.2 | 0.00 | 0.10 | 0.06 | 1 | 1014.4 |
| 20260505165249 | 55 | 279 | 7.0 | 12.2 | 0.00 | 0.10 | 0.06 | 1 | 1014.4 |
| 20260505165245 | 55 | 296 | 6.1 | 12.2 | 0.00 | 0.10 | 0.06 | 1 | 1014.4 |
| 20260505165040 | 55 | 312 | 7.0 | 12.2 | 0.00 | 0.10 | 0.06 | 1 | 1014.4 |
| 20260505164940 | 55 | 277 | 6.1 | 12.2 | 0.00 | 0.10 | 0.06 | 1 | 1014.3 |
| 20260505164835 | 55 | 277 | 6.1 | 12.2 | 0.00 | 0.10 | 0.06 | 1 | 1014.4 |
| 20260505164734 | 55 | 270 | 6.1 | 9.6 | 0.00 | 0.10 | 0.06 | 1 | 1014.4 |
| 20260505164634 | 55 | 281 | 6.1 | 10.4 | 0.00 | 0.10 | 0.06 | 1 | 1014.3 |
| 20260505164542 | 55 | 276 | 6.1 | 10.4 | 0.00 | 0.10 | 0.06 | 1 | 1014.3 |
| 20260505164538 | 55 | 293 | 6.1 | 10.4 | 0.00 | 0.10 | 0.06 | 1 | 1014.3 |
| 20260505164329 | 55 | 263 | 6.1 | 10.4 | 0.00 | 0.10 | 0.06 | 1 | 1014.4 |
| 20260505164228 | 55 | 286 | 6.1 | 10.4 | 0.00 | 0.10 | 0.06 | 1 | 1014.4 |
| 20260505164128 | 55 | 276 | 6.1 | 10.4 | 0.00 | 0.10 | 0.06 | 1 | 1014.3 |
| 20260505164029 | 55 | 279 | 6.1 | 10.4 | 0.00 | 0.10 | 0.06 | 1 | 1014.3 |
| 20260505163928 | 55 | 300 | 6.1 | 10.4 | 0.00 | 0.10 | 0.06 | 1 | 1014.4 |
| 20260505163822 | 55 | 269 | 6.1 | 10.4 | 0.00 | 0.10 | 0.06 | 1 | 1014.4 |
| 20260505163723 | 55 | 252 | 6.1 | 11.3 | 0.00 | 0.10 | 0.06 | 1 | 1014.4 |
| 20260505163623 | 55 | 309 | 6.1 | 11.3 | 0.00 | 0.10 | 0.06 | 1 | 1014.4 |
| 20260505163523 | 55 | 286 | 6.1 | 11.3 | 0.00 | 0.10 | 0.06 | 1 | 1014.4 |
| 20260505163422 | 55 | 281 | 6.1 | 11.3 | 0.00 | 0.10 | 0.06 | 1 | 1014.4 |
| 20260505163321 | 55 | 276 | 6.1 | 11.3 | 0.00 | 0.10 | 0.06 | 1 | 1014.4 |
| 20260505163219 | 55 | 285 | 6.1 | 11.3 | 0.00 | 0.10 | 0.06 | 1 | 1014.5 |
| 20260505163119 | 55 | 273 | 6.1 | 11.3 | 0.00 | 0.10 | 0.06 | 1 | 1014.4 |
| 20260505163018 | 55 | 277 | 6.1 | 11.3 | 0.00 | 0.10 | 0.06 | 1 | 1014.4 |
| 20260505162916 | 55 | 292 | 6.1 | 11.3 | 0.00 | 0.10 | 0.06 | 1 | 1014.4 |
| 20260505162812 | 55 | 269 | 6.1 | 11.3 | 0.00 | 0.10 | 0.06 | 1 | 1014.4 |
| 20260505162712 | 55 | 284 | 7.0 | 11.3 | 0.00 | 0.10 | 0.06 | 1 | 1014.4 |
| 20260505162612 | 55 | 313 | 7.0 | 11.3 | 0.00 | 0.10 | 0.06 | 1 | 1014.4 |
| 20260505162513 | 55 | 279 | 7.0 | 11.3 | 0.00 | 0.10 | 0.06 | 1 | 1014.4 |
| 20260505162409 | 55 | 262 | 6.1 | 11.3 | 0.00 | 0.10 | 0.06 | 1 | 1014.4 |
| 20260505162306 | 55 | 313 | 6.1 | 11.3 | 0.00 | 0.10 | 0.06 | 1 | 1014.4 |
| 20260505162203 | 55 | 269 | 7.0 | 11.3 | 0.00 | 0.10 | 0.06 | 1 | 1014.4 |
| 20260505162111 | 55 | 290 | 6.1 | 11.3 | 0.00 | 0.10 | 0.06 | 1 | 1014.4 |
| 20260505162107 | 55 | 299 | 7.0 | 11.3 | 0.00 | 0.10 | 0.06 | 1 | 1014.4 |
| 20260505161901 | 55 | 307 | 6.1 | 11.3 | 0.00 | 0.10 | 0.06 | 1 | 1014.3 |
| 20260505161756 | 55 | 284 | 6.1 | 11.3 | 0.00 | 0.10 | 0.06 | 1 | 1014.3 |
| 20260505161656 | 55 | 271 | 6.1 | 11.3 | 0.00 | 0.10 | 0.06 | 1 | 1014.3 |
| 20260505161557 | 55 | 307 | 6.1 | 11.3 | 0.00 | 0.10 | 0.06 | 1 | 1014.3 |
| 20260505161457 | 55 | 296 | 6.1 | 11.3 | 0.00 | 0.10 | 0.06 | 1 | 1014.3 |
| 20260505161354 | 55 | 284 | 6.1 | 11.3 | 0.00 | 0.10 | 0.06 | 1 | 1014.2 |
| 20260505161301 | 55 | 298 | 6.1 | 11.3 | 0.00 | 0.10 | 0.06 | 1 | 1014.2 |
| 20260505161256 | 55 | 279 | 6.1 | 11.3 | 0.00 | 0.10 | 0.06 | 1 | 1014.2 |
| 20260505161052 | 54 | 292 | 6.1 | 11.3 | 0.00 | 0.10 | 0.06 | 1 | 1014.2 |
| 20260505161000 | 54 | 279 | 7.0 | 11.3 | 0.00 | 0.10 | 0.06 | 1 | 1014.2 |
| 20260505160956 | 54 | 342 | 7.0 | 11.3 | 0.00 | 0.10 | 0.06 | 1 | 1014.2 |
| 20260505160753 | 54 | 300 | 7.0 | 11.3 | 0.00 | 0.10 | 0.06 | 1 | 1014.2 |
| 20260505160653 | 54 | 303 | 6.1 | 11.3 | 0.00 | 0.10 | 0.06 | 1 | 1014.2 |
| 20260505160552 | 54 | 284 | 6.1 | 11.3 | 0.00 | 0.10 | 0.06 | 1 | 1014.2 |
| 20260505160453 | 54 | 278 | 6.1 | 11.3 | 0.00 | 0.10 | 0.06 | 1 | 1014.2 |
| 20260505160353 | 54 | 277 | 6.1 | 11.3 | 0.00 | 0.10 | 0.06 | 1 | 1014.2 |
| 20260505160251 | 54 | 288 | 6.1 | 11.3 | 0.00 | 0.10 | 0.06 | 1 | 1014.1 |
| 20260505160150 | 54 | 288 | 5.2 | 11.3 | 0.00 | 0.10 | 0.06 | 1 | 1014.1 |
| 20260505153320 | 54 | 291 | 4.3 | 7.8 | 0.00 | 0.10 | 0.06 | 1 | 1014.0 |
| 20260505153220 | 54 | 253 | 4.3 | 8.7 | 0.00 | 0.10 | 0.06 | 1 | 1014.0 |
| 20260505153120 | 54 | 277 | 4.3 | 8.7 | 0.00 | 0.10 | 0.06 | 1 | 1013.9 |
| 20260505153014 | 54 | 284 | 4.3 | 9.6 | 0.00 | 0.10 | 0.06 | 1 | 1013.9 |
| 20260505152914 | 54 | 337 | 4.3 | 9.6 | 0.00 | 0.10 | 0.06 | 1 | 1013.9 |
| 20260505152814 | 54 | 261 | 5.2 | 9.6 | 0.00 | 0.10 | 0.06 | 1 | 1013.9 |
| 20260505152714 | 54 | 279 | 5.2 | 9.6 | 0.00 | 0.10 | 0.06 | 1 | 1013.9 |
| 20260505152614 | 54 | 268 | 5.2 | 9.6 | 0.00 | 0.10 | 0.06 | 1 | 1013.9 |
| 20260505152508 | 54 | 265 | 5.2 | 9.6 | 0.00 | 0.10 | 0.06 | 1 | 1013.9 |
| 20260505152408 | 54 | 277 | 5.2 | 9.6 | 0.00 | 0.10 | 0.06 | 1 | 1013.9 |
| 20260505152308 | 54 | 267 | 4.3 | 9.6 | 0.00 | 0.10 | 0.06 | 1 | 1013.9 |
| 20260505152209 | 54 | 290 | 4.3 | 9.6 | 0.00 | 0.10 | 0.06 | 1 | 1013.9 |
| 20260505152131 | 54 | 273 | 4.3 | 8.7 | 0.00 | 0.10 | 0.06 | 1 | 1014.0 |
| 20260505152127 | 54 | 248 | 4.3 | 7.8 | 0.00 | 0.10 | 0.06 | 1 | 1013.9 |
| 20260505151915 | 54 | 240 | 5.2 | 9.6 | 0.00 | 0.10 | 0.06 | 1 | 1013.9 |
| 20260505151910 | 54 | 273 | 5.2 | 8.7 | 0.00 | 0.10 | 0.06 | 1 | 1014.0 |
| 20260505151602 | 54 | 241 | 6.1 | 12.2 | 0.00 | 0.10 | 0.06 | 1 | 1014.0 |
| 20260505151456 | 54 | 272 | 6.1 | 12.2 | 0.00 | 0.10 | 0.06 | 1 | 1013.9 |
| 20260505151356 | 54 | 269 | 7.0 | 13.0 | 0.00 | 0.10 | 0.06 | 1 | 1013.9 |
| 20260505151328 | 54 | 273 | 7.0 | 13.0 | 0.00 | 0.10 | 0.06 | 1 | 1013.9 |
| 20260505151324 | 54 | 254 | 7.0 | 13.0 | 0.00 | 0.10 | 0.06 | 1 | 1013.9 |
| 20260505151320 | 54 | 271 | 7.0 | 13.0 | 0.00 | 0.10 | 0.06 | 1 | 1013.9 |
| 20260505151316 | 54 | 271 | 7.0 | 13.0 | 0.00 | 0.10 | 0.06 | 1 | 1013.9 |
| 20260505150854 | 54 | 252 | 7.8 | 13.0 | 0.00 | 0.10 | 0.06 | 1 | 1013.9 |
| 20260505150650 | 54 | 260 | 7.8 | 13.0 | 0.00 | 0.10 | 0.06 | 1 | 1013.9 |
| 20260505150550 | 54 | 252 | 7.0 | 13.0 | 0.00 | 0.10 | 0.06 | 1 | 1013.9 |
| 20260505150444 | 54 | 246 | 7.0 | 13.0 | 0.00 | 0.10 | 0.06 | 1 | 1013.8 |
| 20260505150344 | 54 | 247 | 7.0 | 13.0 | 0.00 | 0.10 | 0.06 | 1 | 1013.8 |
| 20260505150245 | 54 | 296 | 7.0 | 13.0 | 0.00 | 0.10 | 0.06 | 1 | 1013.8 |
| 20260505150144 | 54 | 274 | 7.0 | 13.0 | 0.00 | 0.10 | 0.06 | 1 | 1013.8 |
| 20260505140638 | 54 | 229 | 4.3 | 8.7 | 0.00 | 0.10 | 0.06 | 1 | 1013.5 |
| 20260505140538 | 54 | 239 | 4.3 | 8.7 | 0.00 | 0.10 | 0.06 | 1 | 1013.5 |
| 20260505140438 | 54 | 250 | 4.3 | 8.7 | 0.00 | 0.10 | 0.06 | 1 | 1013.5 |
| 20260505140333 | 54 | 238 | 4.3 | 8.7 | 0.00 | 0.10 | 0.06 | 1 | 1013.5 |
| 20260505140232 | 54 | 266 | 4.3 | 8.7 | 0.00 | 0.10 | 0.06 | 1 | 1013.4 |
| 20260505140133 | 54 | 217 | 4.3 | 8.7 | 0.00 | 0.10 | 0.06 | 1 | 1013.4 |
| 20260505130230 | 54 | 255 | 3.5 | 7.0 | 0.00 | 0.10 | 0.06 | 1 | 1013.1 |
| 20260505130131 | 54 | 238 | 3.5 | 7.0 | 0.00 | 0.10 | 0.06 | 1 | 1013.2 |
| 20260505125022 | 54 | 238 | 4.3 | 8.7 | 0.00 | 0.10 | 0.06 | 1 | 1013.3 |
| 20260505124922 | 54 | 256 | 4.3 | 8.7 | 0.00 | 0.10 | 0.06 | 1 | 1013.3 |
| 20260505124822 | 54 | 259 | 4.3 | 8.7 | 0.00 | 0.10 | 0.06 | 1 | 1013.2 |
| 20260505124721 | 54 | 244 | 4.3 | 8.7 | 0.00 | 0.10 | 0.06 | 1 | 1013.3 |
| 20260505124621 | 54 | 250 | 4.3 | 7.8 | 0.00 | 0.10 | 0.06 | 1 | 1013.3 |
| 20260505124518 | 54 | 246 | 4.3 | 7.8 | 0.00 | 0.10 | 0.06 | 1 | 1013.3 |
| 20260505124416 | 54 | 260 | 4.3 | 7.8 | 0.00 | 0.10 | 0.06 | 1 | 1013.3 |
| 20260505124317 | 54 | 233 | 3.5 | 7.8 | 0.00 | 0.10 | 0.06 | 1 | 1013.3 |
| 20260505124215 | 54 | 238 | 4.3 | 7.8 | 0.00 | 0.10 | 0.06 | 1 | 1013.2 |
| 20260505124116 | 54 | 254 | 4.3 | 7.8 | 0.00 | 0.10 | 0.06 | 1 | 1013.3 |
| 20260505124016 | 54 | 261 | 4.3 | 7.8 | 0.00 | 0.10 | 0.06 | 1 | 1013.3 |
| 20260505123914 | 53 | 246 | 4.3 | 7.8 | 0.00 | 0.10 | 0.06 | 1 | 1013.2 |
| 20260505123812 | 53 | 250 | 4.3 | 7.8 | 0.00 | 0.10 | 0.06 | 1 | 1013.2 |
| 20260505123713 | 53 | 250 | 4.3 | 7.8 | 0.00 | 0.10 | 0.06 | 1 | 1013.2 |
| 20260505123612 | 53 | 250 | 4.3 | 7.8 | 0.00 | 0.10 | 0.06 | 1 | 1013.2 |
| 20260505123512 | 53 | 243 | 4.3 | 7.8 | 0.00 | 0.10 | 0.06 | 1 | 1013.2 |
| 20260505123412 | 53 | 240 | 4.3 | 7.8 | 0.00 | 0.10 | 0.06 | 1 | 1013.2 |
| 20260505123312 | 53 | 239 | 4.3 | 7.8 | 0.00 | 0.10 | 0.06 | 1 | 1013.2 |
| 20260505123210 | 53 | 246 | 4.3 | 7.8 | 0.00 | 0.10 | 0.06 | 1 | 1013.2 |
| 20260505123110 | 53 | 257 | 4.3 | 7.8 | 0.00 | 0.10 | 0.06 | 1 | 1013.2 |
| 20260505123010 | 53 | 257 | 4.3 | 7.8 | 0.00 | 0.10 | 0.06 | 1 | 1013.2 |
| 20260505122910 | 53 | 255 | 4.3 | 7.8 | 0.00 | 0.10 | 0.06 | 1 | 1013.2 |
| 20260505122810 | 53 | 265 | 4.3 | 7.8 | 0.00 | 0.10 | 0.06 | 1 | 1013.2 |
| 20260505122710 | 53 | 267 | 4.3 | 7.8 | 0.00 | 0.10 | 0.06 | 1 | 1013.2 |
| 20260505122610 | 53 | 239 | 3.5 | 7.8 | 0.00 | 0.10 | 0.06 | 1 | 1013.2 |
| 20260505122510 | 53 | 275 | 3.5 | 7.0 | 0.00 | 0.10 | 0.06 | 1 | 1013.2 |
| 20260505122410 | 53 | 269 | 4.3 | 7.0 | 0.00 | 0.10 | 0.06 | 1 | 1013.2 |
| 20260505122310 | 53 | 238 | 4.3 | 7.8 | 0.00 | 0.10 | 0.06 | 1 | 1013.2 |
| 20260505122207 | 53 | 271 | 4.3 | 7.8 | 0.00 | 0.10 | 0.06 | 1 | 1013.3 |
| 20260505122107 | 53 | 234 | 4.3 | 7.8 | 0.00 | 0.10 | 0.06 | 1 | 1013.2 |
| 20260505122008 | 53 | 267 | 4.3 | 7.8 | 0.00 | 0.10 | 0.06 | 1 | 1013.2 |
| 20260505121908 | 53 | 252 | 4.3 | 7.8 | 0.00 | 0.10 | 0.06 | 1 | 1013.2 |
| 20260505121808 | 53 | 262 | 4.3 | 9.6 | 0.00 | 0.10 | 0.06 | 1 | 1013.2 |
| 20260505121708 | 53 | 250 | 5.2 | 9.6 | 0.00 | 0.10 | 0.06 | 1 | 1013.1 |
| 20260505121608 | 53 | 231 | 5.2 | 9.6 | 0.00 | 0.10 | 0.06 | 1 | 1013.2 |
| 20260505121507 | 53 | 227 | 5.2 | 9.6 | 0.00 | 0.10 | 0.06 | 1 | 1013.2 |
| 20260505121408 | 53 | 252 | 5.2 | 9.6 | 0.00 | 0.10 | 0.06 | 1 | 1013.2 |
| 20260505121308 | 53 | 246 | 4.3 | 9.6 | 0.00 | 0.10 | 0.06 | 1 | 1013.2 |
| 20260505121208 | 53 | 267 | 4.3 | 9.6 | 0.00 | 0.10 | 0.06 | 1 | 1013.2 |
| 20260505121108 | 53 | 272 | 4.3 | 9.6 | 0.00 | 0.10 | 0.06 | 1 | 1013.3 |
| 20260505121008 | 53 | 242 | 4.3 | 9.6 | 0.00 | 0.10 | 0.06 | 1 | 1013.2 |
| 20260505120908 | 53 | 241 | 4.3 | 9.6 | 0.00 | 0.10 | 0.06 | 1 | 1013.3 |
| 20260505120808 | 53 | 273 | 4.3 | 8.7 | 0.00 | 0.10 | 0.06 | 1 | 1013.2 |
| 20260505120708 | 53 | 271 | 4.3 | 7.8 | 0.00 | 0.10 | 0.06 | 1 | 1013.2 |
| 20260505120608 | 53 | 292 | 4.3 | 7.8 | 0.00 | 0.10 | 0.06 | 1 | 1013.2 |
| 20260505120519 | 53 | 291 | 4.3 | 7.8 | 0.00 | 0.10 | 0.06 | 1 | 1013.2 |
| 20260505120411 | 53 | 252 | 4.3 | 7.8 | 0.00 | 0.10 | 0.06 | 1 | 1013.2 |
| 20260505120006 | 53 | 240 | 4.3 | 7.8 | 0.00 | 0.10 | 0.06 | 1 | 1013.2 |
| 20260505115906 | 53 | 242 | 3.5 | 7.8 | 0.00 | 0.10 | 0.06 | 1 | 1013.2 |
| 20260505115806 | 53 | 252 | 3.5 | 7.8 | 0.00 | 0.10 | 0.06 | 1 | 1013.2 |
| 20260505115714 | 53 | 256 | 3.5 | 7.8 | 0.00 | 0.10 | 0.06 | 1 | 1013.2 |
| 20260505115710 | 53 | 248 | 3.5 | 7.8 | 0.00 | 0.10 | 0.06 | 1 | 1013.2 |
| 20260505115506 | 53 | 260 | 3.5 | 7.8 | 0.00 | 0.10 | 0.06 | 1 | 1013.3 |
| 20260505115406 | 53 | 283 | 3.5 | 7.0 | 0.00 | 0.10 | 0.06 | 1 | 1013.3 |
| 20260505115306 | 53 | 291 | 3.5 | 7.0 | 0.00 | 0.10 | 0.06 | 1 | 1013.2 |
| 20260505115202 | 53 | 236 | 3.5 | 5.2 | 0.00 | 0.10 | 0.06 | 1 | 1013.2 |
| 20260505115102 | 53 | 256 | 3.5 | 6.1 | 0.00 | 0.10 | 0.06 | 1 | 1013.2 |
| 20260505115002 | 53 | 246 | 3.5 | 6.1 | 0.00 | 0.10 | 0.06 | 1 | 1013.2 |
| 20260505114902 | 53 | 262 | 3.5 | 6.1 | 0.00 | 0.10 | 0.06 | 1 | 1013.2 |
| 20260505114802 | 53 | 289 | 3.5 | 6.1 | 0.00 | 0.10 | 0.06 | 1 | 1013.2 |
| 20260505114702 | 53 | 255 | 3.5 | 6.1 | 0.00 | 0.10 | 0.06 | 1 | 1013.1 |
| 20260505114602 | 53 | 238 | 3.5 | 6.1 | 0.00 | 0.10 | 0.06 | 1 | 1013.2 |
| 20260505114502 | 53 | 248 | 3.5 | 6.1 | 0.00 | 0.10 | 0.06 | 1 | 1013.1 |
| 20260505114401 | 53 | 257 | 3.5 | 6.1 | 0.00 | 0.10 | 0.06 | 1 | 1013.2 |
| 20260505114302 | 53 | 257 | 3.5 | 6.1 | 0.00 | 0.10 | 0.06 | 1 | 1013.2 |
| 20260505114202 | 53 | 249 | 3.5 | 6.1 | 0.00 | 0.10 | 0.06 | 1 | 1013.2 |
| 20260505114102 | 53 | 251 | 3.5 | 6.1 | 0.00 | 0.10 | 0.06 | 1 | 1013.2 |
| 20260505114002 | 53 | 269 | 3.5 | 6.1 | 0.00 | 0.10 | 0.06 | 1 | 1013.2 |
| 20260505113902 | 53 | 209 | 3.5 | 6.1 | 0.00 | 0.10 | 0.06 | 1 | 1013.1 |
| 20260505113801 | 53 | 228 | 3.5 | 6.1 | 0.00 | 0.10 | 0.06 | 1 | 1013.2 |
| 20260505113701 | 53 | 240 | 3.5 | 6.1 | 0.00 | 0.10 | 0.06 | 1 | 1013.2 |
| 20260505113601 | 53 | 250 | 2.6 | 6.1 | 0.00 | 0.10 | 0.06 | 1 | 1013.1 |
| 20260505113502 | 53 | 227 | 2.6 | 6.1 | 0.00 | 0.10 | 0.06 | 1 | 1013.2 |
| 20260505113402 | 53 | 277 | 2.6 | 6.1 | 0.00 | 0.10 | 0.06 | 1 | 1013.3 |
| 20260505113258 | 53 | 248 | 2.6 | 6.1 | 0.00 | 0.10 | 0.06 | 1 | 1013.3 |
| 20260505113206 | 53 | 254 | 2.6 | 6.1 | 0.00 | 0.10 | 0.06 | 1 | 1013.3 |
| 20260505113202 | 53 | 236 | 2.6 | 6.1 | 0.00 | 0.10 | 0.06 | 1 | 1013.3 |
| 20260505112958 | 53 | 254 | 2.6 | 7.0 | 0.00 | 0.10 | 0.06 | 1 | 1013.4 |
| 20260505112857 | 53 | 255 | 2.6 | 7.0 | 0.00 | 0.10 | 0.06 | 1 | 1013.4 |
| 20260505112757 | 53 | 254 | 2.6 | 7.0 | 0.00 | 0.10 | 0.06 | 1 | 1013.4 |
| 20260505112658 | 53 | 270 | 2.6 | 7.0 | 0.00 | 0.10 | 0.06 | 1 | 1013.4 |
| 20260505112558 | 53 | 247 | 3.5 | 7.0 | 0.00 | 0.10 | 0.06 | 1 | 1013.4 |
| 20260505112458 | 53 | 268 | 2.6 | 7.0 | 0.00 | 0.10 | 0.06 | 1 | 1013.4 |
| 20260505112357 | 53 | 279 | 3.5 | 7.0 | 0.00 | 0.10 | 0.06 | 1 | 1013.3 |
| 20260505112257 | 53 | 279 | 3.5 | 7.0 | 0.00 | 0.10 | 0.06 | 1 | 1013.3 |
| 20260505112157 | 53 | 277 | 3.5 | 7.0 | 0.00 | 0.10 | 0.06 | 1 | 1013.3 |
| 20260505112058 | 53 | 227 | 3.5 | 7.0 | 0.00 | 0.10 | 0.06 | 1 | 1013.3 |
| 20260505111958 | 53 | 263 | 3.5 | 6.1 | 0.00 | 0.10 | 0.06 | 1 | 1013.3 |
| 20260505111858 | 53 | 263 | 3.5 | 7.0 | 0.01 | 0.10 | 0.06 | 1 | 1013.3 |
| 20260505111758 | 53 | 224 | 3.5 | 7.0 | 0.01 | 0.10 | 0.06 | 1 | 1013.3 |
| 20260505111658 | 53 | 275 | 3.5 | 7.0 | 0.01 | 0.10 | 0.06 | 1 | 1013.3 |
| 20260505111558 | 53 | 279 | 3.5 | 7.0 | 0.01 | 0.10 | 0.06 | 1 | 1013.3 |
| 20260505111457 | 53 | 277 | 3.5 | 7.0 | 0.01 | 0.10 | 0.06 | 1 | 1013.3 |
| 20260505111354 | 53 | 279 | 3.5 | 7.0 | 0.01 | 0.10 | 0.06 | 1 | 1013.3 |
| 20260505111254 | 53 | 270 | 3.5 | 7.0 | 0.01 | 0.10 | 0.06 | 1 | 1013.3 |
| 20260505111154 | 52 | 266 | 3.5 | 7.0 | 0.01 | 0.10 | 0.06 | 1 | 1013.2 |
| 20260505111054 | 52 | 266 | 3.5 | 7.0 | 0.01 | 0.10 | 0.06 | 1 | 1013.2 |
| 20260505110953 | 52 | 250 | 3.5 | 7.0 | 0.01 | 0.10 | 0.06 | 1 | 1013.2 |
| 20260505110854 | 52 | 259 | 3.5 | 6.1 | 0.01 | 0.10 | 0.06 | 1 | 1013.2 |
| 20260505110753 | 52 | 273 | 3.5 | 6.1 | 0.01 | 0.10 | 0.06 | 1 | 1013.2 |
| 20260505110654 | 52 | 262 | 3.5 | 6.1 | 0.01 | 0.10 | 0.06 | 1 | 1013.2 |
| 20260505110554 | 52 | 257 | 3.5 | 6.1 | 0.01 | 0.10 | 0.06 | 1 | 1013.3 |
| 20260505110454 | 52 | 234 | 3.5 | 6.1 | 0.01 | 0.10 | 0.06 | 1 | 1013.2 |
| 20260505110353 | 52 | 250 | 3.5 | 6.1 | 0.01 | 0.10 | 0.06 | 1 | 1013.2 |
| 20260505110253 | 52 | 256 | 3.5 | 6.1 | 0.01 | 0.10 | 0.06 | 1 | 1013.3 |
| 20260505110203 | 52 | 273 | 2.6 | 6.1 | 0.01 | 0.10 | 0.06 | 1 | 1013.2 |
| 20260505110159 | 52 | 260 | 3.5 | 6.1 | 0.01 | 0.10 | 0.06 | 1 | 1013.3 |